Observation data for Welch on 11/21/2019      Previous  Date       Current Mesonet Observations  Soil Data  Daily Summary Page  Observations in Plain Language
KWE2 210600Z 18011KT 15/15 A2995 RMK A01 T01500150  RH  100%=      5-min Rain = 0
KWE2 210601Z 18010KT 15/15 A2995 RMK A01 T01500150  RH  100%=      5-min Rain = 0
KWE2 210602Z 19008KT 15/15 A2995 RMK A01 T01490149  RH  100%=      5-min Rain = 0
KWE2 210603Z 18009KT 15/15 A2995 RMK A01 T01490149  RH  100%=      5-min Rain = 0
KWE2 210604Z 17007KT 15/15 A2995 RMK A01 T01490149  RH  100%=      5-min Rain = 0
KWE2 210605Z 18008KT 15/15 A2995 RMK A01 T01490149  RH  100%=      5-min Rain = 0
KWE2 210606Z 18009KT 15/15 A2995 RMK A01 T01490150  RH  100%=      5-min Rain = 0
KWE2 210607Z 18009KT 15/15 A2995 RMK A01 T01490150  RH  100%=      5-min Rain = 0
KWE2 210608Z 18009KT 15/15 A2995 RMK A01 T01490149  RH  100%=      5-min Rain = 0
KWE2 210609Z 18008KT 15/15 A2995 RMK A01 T01490149  RH  100%=      5-min Rain = 0
KWE2 210610Z 18008KT 15/15 A2995 RMK A01 T01490149  RH  100%=      5-min Rain = 0
KWE2 210611Z 19008KT 15/15 A2995 RMK A01 T01490149  RH  100%=      5-min Rain = 0
KWE2 210612Z 18009KT 15/15 A2995 RMK A01 T01490149  RH  100%=      5-min Rain = 0
KWE2 210613Z 18009KT 15/15 A2995 RMK A01 T01490149  RH  100%=      5-min Rain = 0
KWE2 210614Z 18008KT 15/15 A2995 RMK A01 T01490149  RH  100%=      5-min Rain = 0
KWE2 210615Z 19009KT 15/15 A2995 RMK A01 T01490149  RH  100%=      5-min Rain = 0
KWE2 210616Z 20011KT 15/15 A2995 RMK A01 T01490149  RH  100%=      5-min Rain = 0
KWE2 210617Z 19009KT 15/15 A2995 RMK A01 T01490149  RH  100%=      5-min Rain = 0
KWE2 210618Z 20011KT 15/15 A2995 RMK A01 T01490149  RH  100%=      5-min Rain = 0
KWE2 210619Z 20010KT 15/15 A2995 RMK A01 T01490149  RH  100%=      5-min Rain = 0
KWE2 210620Z 20009KT 15/15 A2995 RMK A01 T01490149  RH  100%=      5-min Rain = 0
KWE2 210621Z 20010KT 15/15 A2995 RMK A01 T01490149  RH  100%=      5-min Rain = 0
KWE2 210622Z 20008KT 15/15 A2995 RMK A01 T01490149  RH  100%=      5-min Rain = 0
KWE2 210623Z 20007KT 15/15 A2995 RMK A01 T01490149  RH  100%=      5-min Rain = 0
KWE2 210624Z 20007KT 15/15 A2995 RMK A01 T01490149  RH  100%=      5-min Rain = 0
KWE2 210625Z 20006KT 15/15 A2995 RMK A01 T01490149  RH  100%=      5-min Rain = 0
KWE2 210626Z 19006KT 15/15 A2995 RMK A01 T01490149  RH  100%=      5-min Rain = 0
KWE2 210627Z 19007KT 15/15 A2995 RMK A01 T01490149  RH  100%=      5-min Rain = 0
KWE2 210628Z 18007KT 15/15 A2995 RMK A01 T01490149  RH  100%=      5-min Rain = 0
KWE2 210629Z 18008KT 15/15 A2995 RMK A01 T01490149  RH  100%=      5-min Rain = 0
KWE2 210630Z 18009KT 15/15 A2995 RMK A01 T01490149  RH  100%=      5-min Rain = 0
KWE2 210631Z 17008KT 15/15 A2995 RMK A01 T01490149  RH  100%=      5-min Rain = 0
KWE2 210632Z 18008KT 15/15 A2995 RMK A01 T01490149  RH  100%=      5-min Rain = 0
KWE2 210633Z 18010KT 15/15 A2995 RMK A01 T01490149  RH  100%=      5-min Rain = 0
KWE2 210634Z 18011KT 15/15 A2995 RMK A01 T01490149  RH  100%=      5-min Rain = 0
KWE2 210635Z 19011KT 15/15 A2995 RMK A01 T01490149  RH  100%=      5-min Rain = 0
KWE2 210636Z 18010KT 15/15 A2995 RMK A01 T01490149  RH  100%=      5-min Rain = 0
KWE2 210637Z 18008KT 15/15 A2995 RMK A01 T01490149  RH  100%=      5-min Rain = 0
KWE2 210638Z 18008KT 15/15 A2995 RMK A01 T01490149  RH  100%=      5-min Rain = 0
KWE2 210639Z 19007KT 15/15 A2995 RMK A01 T01490149  RH  100%=      5-min Rain = 0
KWE2 210640Z 19007KT 15/15 A2995 RMK A01 T01490149  RH  100%=      5-min Rain = 0
KWE2 210641Z 19008KT 15/15 A2994 RMK A01 T01490149  RH  100%=      5-min Rain = 0
KWE2 210642Z 19005KT 15/15 A2994 RMK A01 T01490149  RH  100%=      5-min Rain = 0
KWE2 210643Z 18005KT 15/15 A2994 RMK A01 T01490149  RH  100%=      5-min Rain = 0
KWE2 210644Z 20007KT 15/15 A2994 RMK A01 T01490149  RH  100%=      5-min Rain = 0
KWE2 210645Z 19009KT 15/15 A2994 RMK A01 T01490149  RH  100%=      5-min Rain = 0
KWE2 210646Z 19008KT 15/15 A2994 RMK A01 T01490149  RH  100%=      5-min Rain = 0
KWE2 210647Z 20009KT 15/15 A2994 RMK A01 T01490149  RH  100%=      5-min Rain = 0
KWE2 210648Z 19008KT 15/15 A2994 RMK A01 T01490149  RH  100%=      5-min Rain = 0
KWE2 210649Z 19006KT 15/15 A2995 RMK A01 T01490149  RH  100%=      5-min Rain = 0
KWE2 210650Z 20007KT 15/15 A2994 RMK A01 T01490149  RH  100%=      5-min Rain = 0
KWE2 210651Z 20009KT 15/15 A2994 RMK A01 T01490149  RH  100%=      5-min Rain = 0
KWE2 210652Z 20006KT 15/15 A2994 RMK A01 T01490149  RH  100%=      5-min Rain = 0
KWE2 210653Z 21007KT 15/15 A2994 RMK A01 T01490149  RH  100%=      5-min Rain = 0
KWE2 210654Z 21008KT 15/15 A2994 RMK A01 T01490149  RH  100%=      5-min Rain = 0
KWE2 210655Z 20007KT 15/15 A2994 RMK A01 T01480148  RH  100%=      5-min Rain = 0
KWE2 210656Z 20008KT 15/15 A2994 RMK A01 T01490149  RH  100%=      5-min Rain = 0
KWE2 210657Z 20007KT 15/15 A2994 RMK A01 T01480149  RH  100%=      5-min Rain = 0
KWE2 210658Z 19008KT 15/15 A2995 RMK A01 T01480148  RH  100%=      5-min Rain = 0
KWE2 210659Z 19009KT 15/15 A2995 RMK A01 T01480148  RH  100%=      5-min Rain = 0
KWE2 210700Z 19008KT 15/15 A2995 RMK A01 T01480148  RH  100%=      5-min Rain = 0
KWE2 210701Z 19008KT 15/15 A2995 RMK A01 T01480148  RH  100%=      5-min Rain = 0
KWE2 210702Z 20007KT 15/15 A2995 RMK A01 T01480148  RH  100%=      5-min Rain = 0
KWE2 210703Z 19008KT 15/15 A2995 RMK A01 T01480148  RH  100%=      5-min Rain = 0
KWE2 210704Z 19007KT 15/15 A2995 RMK A01 T01480148  RH  100%=      5-min Rain = 0
KWE2 210705Z 19005KT 15/15 A2995 RMK A01 T01470147  RH  100%=      5-min Rain = 0
KWE2 210706Z 19006KT 15/15 A2995 RMK A01 T01470148  RH  100%=      5-min Rain = 0
KWE2 210707Z 18007KT 15/15 A2995 RMK A01 T01480148  RH  100%=      5-min Rain = 0
KWE2 210708Z 18006KT 15/15 A2995 RMK A01 T01470147  RH  100%=      5-min Rain = 0
KWE2 210709Z 18008KT 15/15 A2995 RMK A01 T01470147  RH  100%=      5-min Rain = 0
KWE2 210710Z 18006KT 15/15 A2995 RMK A01 T01470147  RH  100%=      5-min Rain = 0
KWE2 210711Z 19007KT 15/15 A2995 RMK A01 T01470147  RH  100%=      5-min Rain = 0
KWE2 210712Z 18009KT 15/15 A2995 RMK A01 T01470147  RH  100%=      5-min Rain = 0
KWE2 210713Z 18008KT 15/15 A2995 RMK A01 T01470147  RH  100%=      5-min Rain = 0
KWE2 210714Z 19008KT 15/15 A2995 RMK A01 T01470147  RH  100%=      5-min Rain = 0
KWE2 210715Z 20008KT 15/15 A2995 RMK A01 T01470147  RH  100%=      5-min Rain = 0
KWE2 210716Z 20007KT 15/15 A2995 RMK A01 T01470147  RH  100%=      5-min Rain = 0
KWE2 210717Z 21008KT 15/15 A2995 RMK A01 T01470147  RH  100%=      5-min Rain = 0
KWE2 210718Z 21008KT 15/15 A2995 RMK A01 T01470147  RH  100%=      5-min Rain = 0
KWE2 210719Z 21007KT 15/15 A2995 RMK A01 T01470147  RH  100%=      5-min Rain = 0
KWE2 210720Z 21007KT 15/15 A2995 RMK A01 T01470147  RH  100%=      5-min Rain = 0
KWE2 210721Z 21007KT 15/15 A2994 RMK A01 T01460147  RH  100%=      5-min Rain = 0
KWE2 210722Z 21008KT 15/15 A2994 RMK A01 T01460147  RH  100%=      5-min Rain = 0
KWE2 210723Z 21009KT 15/15 A2994 RMK A01 T01470147  RH  100%=      5-min Rain = 0
KWE2 210724Z 21008KT 15/15 A2994 RMK A01 T01470147  RH  100%=      5-min Rain = 0
KWE2 210725Z 21007KT 15/15 A2994 RMK A01 T01460146  RH  100%=      5-min Rain = 0
KWE2 210726Z 20008KT 15/15 A2994 RMK A01 T01460146  RH  100%=      5-min Rain = 0
KWE2 210727Z 20007KT 15/15 A2994 RMK A01 T01460146  RH  100%=      5-min Rain = 0
KWE2 210728Z 20007KT 15/15 A2994 RMK A01 T01460146  RH  100%=      5-min Rain = 0
KWE2 210729Z 20008KT 15/15 A2994 RMK A01 T01460146  RH  100%=      5-min Rain = 0
KWE2 210730Z 20007KT 15/15 A2994 RMK A01 T01460146  RH  100%=      5-min Rain = 0
KWE2 210731Z 20008KT 15/15 A2994 RMK A01 T01460146  RH  100%=      5-min Rain = 0
KWE2 210732Z 18006KT 15/15 A2994 RMK A01 T01460146  RH  100%=      5-min Rain = 0
KWE2 210733Z 18007KT 15/15 A2994 RMK A01 T01460146  RH  100%=      5-min Rain = 0
KWE2 210734Z 18006KT 15/15 A2994 RMK A01 T01460146  RH  100%=      5-min Rain = 0
KWE2 210735Z 19006KT 15/15 A2994 RMK A01 T01460146  RH  100%=      5-min Rain = 0
KWE2 210736Z 18006KT 15/15 A2994 RMK A01 T01460146  RH  100%=      5-min Rain = 0
KWE2 210737Z 18007KT 15/15 A2994 RMK A01 T01460146  RH  100%=      5-min Rain = 0
KWE2 210738Z 19007KT 15/15 A2994 RMK A01 T01460146  RH  100%=      5-min Rain = 0
KWE2 210739Z 19007KT 15/15 A2994 RMK A01 T01460146  RH  100%=      5-min Rain = 0
KWE2 210740Z 19007KT 15/15 A2994 RMK A01 T01460146  RH  100%=      5-min Rain = 0
KWE2 210741Z 19007KT 15/15 A2994 RMK A01 T01460146  RH  100%=      5-min Rain = 0
KWE2 210742Z 19008KT 15/15 A2994 RMK A01 T01460146  RH  100%=      5-min Rain = 0
KWE2 210743Z 19008KT 15/15 A2994 RMK A01 T01450146  RH  100%=      5-min Rain = 0
KWE2 210744Z 19007KT 15/15 A2994 RMK A01 T01460146  RH  100%=      5-min Rain = 0
KWE2 210745Z 18008KT 15/15 A2994 RMK A01 T01460146  RH  100%=      5-min Rain = 0
KWE2 210746Z 19008KT 15/15 A2994 RMK A01 T01460146  RH  100%=      5-min Rain = 0
KWE2 210747Z 19005KT 15/15 A2994 RMK A01 T01460146  RH  100%=      5-min Rain = 0
KWE2 210748Z 21004KT 15/15 A2994 RMK A01 T01460146  RH  100%=      5-min Rain = 0
KWE2 210749Z 20005KT 15/15 A2994 RMK A01 T01460146  RH  100%=      5-min Rain = 0
KWE2 210750Z 20006KT 15/15 A2994 RMK A01 T01460146  RH  100%=      5-min Rain = 0
KWE2 210751Z 21006KT 15/15 A2994 RMK A01 T01460146  RH  100%=      5-min Rain = 0
KWE2 210752Z 20006KT 15/15 A2994 RMK A01 T01460146  RH  100%=      5-min Rain = 0
KWE2 210753Z 18007KT 15/15 A2994 RMK A01 T01460146  RH  100%=      5-min Rain = 0
KWE2 210754Z 19007KT 15/15 A2994 RMK A01 T01460146  RH  100%=      5-min Rain = 0
KWE2 210755Z 21007KT 15/15 A2994 RMK A01 T01460146  RH  100%=      5-min Rain = 0
KWE2 210756Z 21007KT 15/15 A2994 RMK A01 T01460146  RH  100%=      5-min Rain = 0
KWE2 210757Z 20007KT 15/15 A2994 RMK A01 T01460146  RH  100%=      5-min Rain = 0
KWE2 210758Z 19006KT 15/15 A2994 RMK A01 T01450146  RH  100%=      5-min Rain = 0
KWE2 210759Z 20005KT 15/15 A2994 RMK A01 T01460146  RH  100%=      5-min Rain = 0
KWE2 210800Z 19006KT 15/15 A2994 RMK A01 T01460146  RH  100%=      5-min Rain = 0
KWE2 210801Z 18006KT 15/15 A2994 RMK A01 T01460146  RH  100%=      5-min Rain = 0
KWE2 210802Z 18006KT 15/15 A2994 RMK A01 T01450146  RH  100%=      5-min Rain = 0
KWE2 210803Z 18007KT 15/15 A2994 RMK A01 T01460146  RH  100%=      5-min Rain = 0
KWE2 210804Z 18007KT 15/15 A2994 RMK A01 T01460146  RH  100%=      5-min Rain = 0
KWE2 210805Z 18007KT 15/15 A2994 RMK A01 T01450145  RH  100%=      5-min Rain = 0
KWE2 210806Z 19007KT 15/15 A2994 RMK A01 T01450146  RH  100%=      5-min Rain = 0
KWE2 210807Z 19007KT 15/15 A2993 RMK A01 T01450145  RH  100%=      5-min Rain = 0
KWE2 210808Z 19006KT 15/15 A2993 RMK A01 T01450145  RH  100%=      5-min Rain = 0
KWE2 210809Z 20004KT 15/15 A2993 RMK A01 T01450145  RH  100%=      5-min Rain = 0
KWE2 210810Z 22005KT 15/15 A2993 RMK A01 T01450145  RH  100%=      5-min Rain = 0
KWE2 210811Z 21006KT 15/15 A2993 RMK A01 T01450145  RH  100%=      5-min Rain = 0
KWE2 210812Z 21005KT 15/15 A2993 RMK A01 T01450145  RH  100%=      5-min Rain = 0
KWE2 210813Z 22006KT 15/15 A2994 RMK A01 T01450145  RH  100%=      5-min Rain = 0
KWE2 210814Z 21005KT 15/15 A2994 RMK A01 T01450145  RH  100%=      5-min Rain = 0
KWE2 210815Z 21005KT 15/15 A2994 RMK A01 T01450145  RH  100%=      5-min Rain = 0
KWE2 210816Z 21004KT 15/15 A2994 RMK A01 T01450145  RH  100%=      5-min Rain = 0
KWE2 210817Z 20005KT 15/15 A2994 RMK A01 T01450145  RH  100%=      5-min Rain = 0
KWE2 210818Z 20005KT 15/15 A2994 RMK A01 T01450145  RH  100%=      5-min Rain = 0
KWE2 210819Z 21004KT 15/15 A2994 RMK A01 T01450145  RH  100%=      5-min Rain = 0
KWE2 210820Z 21005KT 15/15 A2994 RMK A01 T01450145  RH  100%=      5-min Rain = 0
KWE2 210821Z 20005KT 15/15 A2994 RMK A01 T01450145  RH  100%=      5-min Rain = 0
KWE2 210822Z 20005KT 15/15 A2994 RMK A01 T01450145  RH  100%=      5-min Rain = 0
KWE2 210823Z 19006KT 15/15 A2994 RMK A01 T01450145  RH  100%=      5-min Rain = 0
KWE2 210824Z 20004KT 15/15 A2994 RMK A01 T01450145  RH  100%=      5-min Rain = 0
KWE2 210825Z 20004KT 15/15 A2994 RMK A01 T01450145  RH  100%=      5-min Rain = 0
KWE2 210826Z 19003KT 15/15 A2994 RMK A01 T01450145  RH  100%=      5-min Rain = 0
KWE2 210827Z 20003KT 15/15 A2994 RMK A01 T01450145  RH  100%=      5-min Rain = 0
KWE2 210828Z 20003KT 15/15 A2994 RMK A01 T01450145  RH  100%=      5-min Rain = 0
KWE2 210829Z 21003KT 15/15 A2994 RMK A01 T01450145  RH  100%=      5-min Rain = 0
KWE2 210830Z 21003KT 15/15 A2994 RMK A01 T01450145  RH  100%=      5-min Rain = 0
KWE2 210831Z 22003KT 15/15 A2994 RMK A01 T01450145  RH  100%=      5-min Rain = 0
KWE2 210832Z 22003KT 15/15 A2994 RMK A01 T01450145  RH  100%=      5-min Rain = 0
KWE2 210833Z 21004KT 15/15 A2994 RMK A01 T01450145  RH  100%=      5-min Rain = 0
KWE2 210834Z 22005KT 15/15 A2994 RMK A01 T01450145  RH  100%=      5-min Rain = 0
KWE2 210835Z 22004KT 15/15 A2993 RMK A01 T01450145  RH  100%=      5-min Rain = 0
KWE2 210836Z 23004KT 15/15 A2993 RMK A01 T01450145  RH  100%=      5-min Rain = 0
KWE2 210837Z 22004KT 15/15 A2993 RMK A01 T01450145  RH  100%=      5-min Rain = 0
KWE2 210838Z 23004KT 15/15 A2993 RMK A01 T01450145  RH  100%=      5-min Rain = 0
KWE2 210839Z 23004KT 15/15 A2993 RMK A01 T01450145  RH  100%=      5-min Rain = 0
KWE2 210840Z 22004KT 15/15 A2993 RMK A01 T01450145  RH  100%=      5-min Rain = 0
KWE2 210841Z 22004KT 15/15 A2993 RMK A01 T01450145  RH  100%=      5-min Rain = 0
KWE2 210842Z 21006KT 15/15 A2993 RMK A01 T01450145  RH  100%=      5-min Rain = 0
KWE2 210843Z 20005KT 14/14 A2993 RMK A01 T01440144  RH  100%=      5-min Rain = 0
KWE2 210844Z 20005KT 14/14 A2993 RMK A01 T01440144  RH  100%=      5-min Rain = 0
KWE2 210845Z 20005KT 14/14 A2993 RMK A01 T01440144  RH  100%=      5-min Rain = 0
KWE2 210846Z 19004KT 14/14 A2993 RMK A01 T01440144  RH  100%=      5-min Rain = 0
KWE2 210847Z 20005KT 14/14 A2993 RMK A01 T01440144  RH  100%=      5-min Rain = 0
KWE2 210848Z 20005KT 14/14 A2993 RMK A01 T01440144  RH  100%=      5-min Rain = 0
KWE2 210849Z 21004KT 14/14 A2993 RMK A01 T01440144  RH  100%=      5-min Rain = 0
KWE2 210850Z 21004KT 14/14 A2993 RMK A01 T01440144  RH  100%=      5-min Rain = 0
KWE2 210851Z 21004KT 14/14 A2993 RMK A01 T01440144  RH  100%=      5-min Rain = 0
KWE2 210852Z 21004KT 14/15 A2993 RMK A01 T01440145  RH  100%=      5-min Rain = 0
KWE2 210853Z 22004KT 14/14 A2993 RMK A01 T01440144  RH  100%=      5-min Rain = 0
KWE2 210854Z 22005KT 14/14 A2993 RMK A01 T01440144  RH  100%=      5-min Rain = 0
KWE2 210855Z 21004KT 14/14 A2993 RMK A01 T01440144  RH  100%=      5-min Rain = 0
KWE2 210856Z 21003KT 14/14 A2993 RMK A01 T01440144  RH  100%=      5-min Rain = 0
KWE2 210857Z 22003KT 14/14 A2993 RMK A01 T01440144  RH  100%=      5-min Rain = 0
KWE2 210858Z 21003KT 14/14 A2993 RMK A01 T01440144  RH  100%=      5-min Rain = 0
KWE2 210859Z 21004KT 14/14 A2993 RMK A01 T01440144  RH  100%=      5-min Rain = 0
KWE2 210900Z 20004KT 14/14 A2993 RMK A01 T01440144  RH  100%=      5-min Rain = 0
KWE2 210901Z 19005KT 14/14 A2993 RMK A01 T01440144  RH  100%=      5-min Rain = 0
KWE2 210902Z 18004KT 14/14 A2993 RMK A01 T01440144  RH  100%=      5-min Rain = 0
KWE2 210903Z 20003KT 14/14 A2993 RMK A01 T01440144  RH  100%=      5-min Rain = 0
KWE2 210904Z 20003KT 14/14 A2993 RMK A01 T01440144  RH  100%=      5-min Rain = 0
KWE2 210905Z 20003KT 14/14 A2993 RMK A01 T01440144  RH  100%=      5-min Rain = 0
KWE2 210906Z 19002KT 14/14 A2993 RMK A01 T01440144  RH  100%=      5-min Rain = 0
KWE2 210907Z 18003KT 14/14 A2993 RMK A01 T01440144  RH  100%=      5-min Rain = 0
KWE2 210908Z 18003KT 14/14 A2993 RMK A01 T01440144  RH  100%=      5-min Rain = 0
KWE2 210909Z 17004KT 14/14 A2993 RMK A01 T01440144  RH  100%=      5-min Rain = 0
KWE2 210910Z 17004KT 14/14 A2993 RMK A01 T01440144  RH  100%=      5-min Rain = 0
KWE2 210911Z 17004KT 14/14 A2993 RMK A01 T01440144  RH  100%=      5-min Rain = 0
KWE2 210912Z 16005KT 14/14 A2993 RMK A01 T01440144  RH  100%=      5-min Rain = 0
KWE2 210913Z 17004KT 14/14 A2993 RMK A01 T01440144  RH  100%=      5-min Rain = 0
KWE2 210914Z 17004KT 14/14 A2993 RMK A01 T01440144  RH  100%=      5-min Rain = 0
KWE2 210915Z 18004KT 14/14 A2993 RMK A01 T01440144  RH  100%=      5-min Rain = 0
KWE2 210916Z 17004KT 14/14 A2993 RMK A01 T01440144  RH  100%=      5-min Rain = 0
KWE2 210917Z 17005KT 14/14 A2993 RMK A01 T01440144  RH  100%=      5-min Rain = 0
KWE2 210918Z 18004KT 14/14 A2993 RMK A01 T01440144  RH  100%=      5-min Rain = 0
KWE2 210919Z 19005KT 14/14 A2993 RMK A01 T01440144  RH  100%=      5-min Rain = 0
KWE2 210920Z 20006KT 14/14 A2993 RMK A01 T01440144  RH  100%=      5-min Rain = 0
KWE2 210921Z 20005KT 14/14 A2993 RMK A01 T01440144  RH  100%=      5-min Rain = 0
KWE2 210922Z 19005KT 14/14 A2993 RMK A01 T01440144  RH  100%=      5-min Rain = 0
KWE2 210923Z 19005KT 14/14 A2993 RMK A01 T01440144  RH  100%=      5-min Rain = 0
KWE2 210924Z 20004KT 14/14 A2993 RMK A01 T01440144  RH  100%=      5-min Rain = 0
KWE2 210925Z 20005KT 14/14 A2993 RMK A01 T01440144  RH  100%=      5-min Rain = 0
KWE2 210926Z 19004KT 14/14 A2993 RMK A01 T01440144  RH  100%=      5-min Rain = 0
KWE2 210927Z 19004KT 14/14 A2993 RMK A01 T01440144  RH  100%=      5-min Rain = 0
KWE2 210928Z 17004KT 14/14 A2993 RMK A01 T01440144  RH  100%=      5-min Rain = 0
KWE2 210929Z 17004KT 14/14 A2993 RMK A01 T01440144  RH  100%=      5-min Rain = 0
KWE2 210930Z 17003KT 14/14 A2993 RMK A01 T01440144  RH  100%=      5-min Rain = 0
KWE2 210931Z 17004KT 14/14 A2993 RMK A01 T01440144  RH  100%=      5-min Rain = 0
KWE2 210932Z 17004KT 14/14 A2993 RMK A01 T01440144  RH  100%=      5-min Rain = 0
KWE2 210933Z 18004KT 14/14 A2993 RMK A01 T01440144  RH  100%=      5-min Rain = 0
KWE2 210934Z 18004KT 14/14 A2993 RMK A01 T01440144  RH  100%=      5-min Rain = 0
KWE2 210935Z 18005KT 14/14 A2993 RMK A01 T01440144  RH  100%=      5-min Rain = 0
KWE2 210936Z 17005KT 14/14 A2993 RMK A01 T01440144  RH  100%=      5-min Rain = 0
KWE2 210937Z 17005KT 14/14 A2993 RMK A01 T01440144  RH  100%=      5-min Rain = 0
KWE2 210938Z 17004KT 14/14 A2993 RMK A01 T01440144  RH  100%=      5-min Rain = 0
KWE2 210939Z 16003KT 14/14 A2993 RMK A01 T01440144  RH  100%=      5-min Rain = 0
KWE2 210940Z 15002KT 14/14 A2993 RMK A01 T01440144  RH  100%=      5-min Rain = 0
KWE2 210941Z 16003KT 14/14 A2993 RMK A01 T01440144  RH  100%=      5-min Rain = 0
KWE2 210942Z 17004KT 14/14 A2993 RMK A01 T01440144  RH  100%=      5-min Rain = 0
KWE2 210943Z 17004KT 14/15 A2994 RMK A01 T01440145  RH  100%=      5-min Rain = 0
KWE2 210944Z 17005KT 15/15 A2994 RMK A01 T01450145  RH  100%=      5-min Rain = 0
KWE2 210945Z 17005KT 15/15 A2994 RMK A01 T01450145  RH  100%=      5-min Rain = 0
KWE2 210946Z 18005KT 15/15 A2994 RMK A01 T01450145  RH  100%=      5-min Rain = 0
KWE2 210947Z 18004KT 15/15 A2994 RMK A01 T01450145  RH  100%=      5-min Rain = 0
KWE2 210948Z 19004KT 15/15 A2994 RMK A01 T01450145  RH  100%=      5-min Rain = 0
KWE2 210949Z 20005KT 15/15 A2993 RMK A01 T01450145  RH  100%=      5-min Rain = 0
KWE2 210950Z 18004KT 15/15 A2993 RMK A01 T01450145  RH  100%=      5-min Rain = 0
KWE2 210951Z 18003KT 15/15 A2993 RMK A01 T01450145  RH  100%=      5-min Rain = 0
KWE2 210952Z 19004KT 15/15 A2993 RMK A01 T01460146  RH  100%=      5-min Rain = 0
KWE2 210953Z 20003KT 15/15 A2993 RMK A01 T01460146  RH  100%=      5-min Rain = 0
KWE2 210954Z 21003KT 15/15 A2993 RMK A01 T01460146  RH  100%=      5-min Rain = 0
KWE2 210955Z 22003KT 15/15 A2993 RMK A01 T01460146  RH  100%=      5-min Rain = 0
KWE2 210956Z 22003KT 15/15 A2993 RMK A01 T01450146  RH  100%=      5-min Rain = 0
KWE2 210957Z 22002KT 15/15 A2993 RMK A01 T01460146  RH  100%=      5-min Rain = 0
KWE2 210958Z 20003KT 15/15 A2993 RMK A01 T01460146  RH  100%=      5-min Rain = 0
KWE2 210959Z 21003KT 15/15 A2993 RMK A01 T01460146  RH  100%=      5-min Rain = 0
KWE2 211000Z 24002KT 15/15 A2993 RMK A01 T01460146  RH  100%=      5-min Rain = 0
KWE2 211001Z 25002KT 15/15 A2993 RMK A01 T01460146  RH  100%=      5-min Rain = 0
KWE2 211002Z 22003KT 15/15 A2993 RMK A01 T01460146  RH  100%=      5-min Rain = 0
KWE2 211003Z 23002KT 15/15 A2993 RMK A01 T01460146  RH  100%=      5-min Rain = 0
KWE2 211004Z 25002KT 15/15 A2993 RMK A01 T01460146  RH  100%=      5-min Rain = 0
KWE2 211005Z 25002KT 15/15 A2993 RMK A01 T01460146  RH  100%=      5-min Rain = 0
KWE2 211006Z 24002KT 15/15 A2993 RMK A01 T01460146  RH  100%=      5-min Rain = 0
KWE2 211007Z 26002KT 15/15 A2993 RMK A01 T01460146  RH  100%=      5-min Rain = 0
KWE2 211008Z 26002KT 15/15 A2993 RMK A01 T01460146  RH  100%=      5-min Rain = 0
KWE2 211009Z 25003KT 15/15 A2993 RMK A01 T01460146  RH  100%=      5-min Rain = 0
KWE2 211010Z 26002KT 15/15 A2993 RMK A01 T01460146  RH  100%=      5-min Rain = 0
KWE2 211011Z 26002KT 15/15 A2993 RMK A01 T01460146  RH  100%=      5-min Rain = 0
KWE2 211012Z 27002KT 15/15 A2993 RMK A01 T01460146  RH  100%=      5-min Rain = 0
KWE2 211013Z 27002KT 15/15 A2993 RMK A01 T01460146  RH  100%=      5-min Rain = 0
KWE2 211014Z 26002KT 15/15 A2993 RMK A01 T01460146  RH  100%=      5-min Rain = 0
KWE2 211015Z 26002KT 15/15 A2993 RMK A01 T01460146  RH  100%=      5-min Rain = 0
KWE2 211016Z 27001KT 15/15 A2993 RMK A01 T01460146  RH  100%=      5-min Rain = 0
KWE2 211017Z 28001KT 15/15 A2993 RMK A01 T01460146  RH  100%=      5-min Rain = 0
KWE2 211018Z 26002KT 15/15 A2993 RMK A01 T01460146  RH  100%=      5-min Rain = 0
KWE2 211019Z 25001KT 15/15 A2993 RMK A01 T01460146  RH  100%=      5-min Rain = 0
KWE2 211020Z 27001KT 15/15 A2993 RMK A01 T01460146  RH  100%=      5-min Rain = 0
KWE2 211021Z 27001KT 15/15 A2993 RMK A01 T01460146  RH  100%=      5-min Rain = 0
KWE2 211022Z 28001KT 15/15 A2993 RMK A01 T01460146  RH  100%=      5-min Rain = 0
KWE2 211023Z 29001KT 15/15 A2993 RMK A01 T01460146  RH  100%=      5-min Rain = 0
KWE2 211024Z 29001KT 15/15 A2993 RMK A01 T01460146  RH  100%=      5-min Rain = 0
KWE2 211025Z 29001KT 15/15 A2993 RMK A01 T01460146  RH  100%=      5-min Rain = 0
KWE2 211026Z 31001KT 15/15 A2993 RMK A01 T01460146  RH  100%=      5-min Rain = 0
KWE2 211027Z 32002KT 15/15 A2993 RMK A01 T01460146  RH  100%=      5-min Rain = 0
KWE2 211028Z 32001KT 15/15 A2993 RMK A01 T01460146  RH  100%=      5-min Rain = 0
KWE2 211029Z 32001KT 15/15 A2993 RMK A01 T01460146  RH  100%=      5-min Rain = 0
KWE2 211030Z 33000KT 15/15 A2993 RMK A01 T01460146  RH  100%=      5-min Rain = 0
KWE2 211031Z 00000KT 15/15 A2993 RMK A01 T01450146  RH  100%=      5-min Rain = 0
KWE2 211032Z 36000KT 15/15 A2992 RMK A01 T01450146  RH  100%=      5-min Rain = 0
KWE2 211033Z 00001KT 15/15 A2992 RMK A01 T01460146  RH  100%=      5-min Rain = 0
KWE2 211034Z 00000KT 15/15 A2992 RMK A01 T01460146  RH  100%=      5-min Rain = 0
KWE2 211035Z 00000KT 15/15 A2992 RMK A01 T01460146  RH  100%=      5-min Rain = 0
KWE2 211036Z 00000KT 15/15 A2993 RMK A01 T01450145  RH  100%=      5-min Rain = 0
KWE2 211037Z 00000KT 15/15 A2993 RMK A01 T01450145  RH  100%=      5-min Rain = 0
KWE2 211038Z 04000KT 15/15 A2992 RMK A01 T01450145  RH  100%=      5-min Rain = 0
KWE2 211039Z 04001KT 15/15 A2992 RMK A01 T01450145  RH  100%=      5-min Rain = 0
KWE2 211040Z 05002KT 15/15 A2992 RMK A01 T01450145  RH  100%=      5-min Rain = 0
KWE2 211041Z 05002KT 15/15 A2992 RMK A01 T01450145  RH  100%=      5-min Rain = 0
KWE2 211042Z 06001KT 15/15 A2992 RMK A01 T01450145  RH  100%=      5-min Rain = 0
KWE2 211043Z 05001KT 15/15 A2992 RMK A01 T01450145  RH  100%=      5-min Rain = 0
KWE2 211044Z 05001KT 15/15 A2992 RMK A01 T01450145  RH  100%=      5-min Rain = 0
KWE2 211045Z 05001KT 15/15 A2992 RMK A01 T01450145  RH  100%=      5-min Rain = 0
KWE2 211046Z 05001KT 15/15 A2992 RMK A01 T01450145  RH  100%=      5-min Rain = 0
KWE2 211047Z 05001KT 15/15 A2992 RMK A01 T01450145  RH  100%=      5-min Rain = 0
KWE2 211048Z 06001KT 15/15 A2992 RMK A01 T01450145  RH  100%=      5-min Rain = 0
KWE2 211049Z 07001KT 15/15 A2992 RMK A01 T01450145  RH  100%=      5-min Rain = 0
KWE2 211050Z 09001KT 15/15 A2992 RMK A01 T01450145  RH  100%=      5-min Rain = 0
KWE2 211051Z 08002KT 15/15 A2992 RMK A01 T01450145  RH  100%=      5-min Rain = 0
KWE2 211052Z 07002KT 15/15 A2992 RMK A01 T01450145  RH  100%=      5-min Rain = 0
KWE2 211053Z 07002KT 15/15 A2992 RMK A01 T01450145  RH  100%=      5-min Rain = 0
KWE2 211054Z 07003KT 15/15 A2992 RMK A01 T01450145  RH  100%=      5-min Rain = 0
KWE2 211055Z 07003KT 15/15 A2992 RMK A01 T01450145  RH  100%=      5-min Rain = 0
KWE2 211056Z 07003KT 15/15 A2992 RMK A01 T01450145  RH  100%=      5-min Rain = 0
KWE2 211057Z 06003KT 15/15 A2992 RMK A01 T01450145  RH  100%=      5-min Rain = 0
KWE2 211058Z 05003KT 15/15 A2992 RMK A01 T01450145  RH  100%=      5-min Rain = 0
KWE2 211059Z 06002KT 14/15 A2993 RMK A01 T01440145  RH  100%=      5-min Rain = 0
KWE2 211100Z 06002KT 14/14 A2993 RMK A01 T01440144  RH  100%=      5-min Rain = 0
KWE2 211101Z 07002KT 14/14 A2993 RMK A01 T01440144  RH  100%=      5-min Rain = 0
KWE2 211102Z 06002KT 14/14 A2992 RMK A01 T01440144  RH  100%=      5-min Rain = 0
KWE2 211103Z 07002KT 14/14 A2992 RMK A01 T01440144  RH  100%=      5-min Rain = 0
KWE2 211104Z 07002KT 15/15 A2992 RMK A01 T01450145  RH  100%=      5-min Rain = 0
KWE2 211105Z 08002KT 14/14 A2992 RMK A01 T01440144  RH  100%=      5-min Rain = 0
KWE2 211106Z 08002KT 14/14 A2992 RMK A01 T01440144  RH  100%=      5-min Rain = 0
KWE2 211107Z 08002KT 14/14 A2992 RMK A01 T01440144  RH  100%=      5-min Rain = 0
KWE2 211108Z 07002KT 14/14 A2992 RMK A01 T01440144  RH  100%=      5-min Rain = 0
KWE2 211109Z 08002KT 14/14 A2992 RMK A01 T01440144  RH  100%=      5-min Rain = 0
KWE2 211110Z 07003KT 14/15 A2992 RMK A01 T01440145  RH  100%=      5-min Rain = 0
KWE2 211111Z 07003KT 14/14 A2992 RMK A01 T01440144  RH  100%=      5-min Rain = 0
KWE2 211112Z 07003KT 14/15 A2992 RMK A01 T01440145  RH  100%=      5-min Rain = 0
KWE2 211113Z 07003KT 14/14 A2992 RMK A01 T01440144  RH  100%=      5-min Rain = 0
KWE2 211114Z 07003KT 15/15 A2992 RMK A01 T01450145  RH  100%=      5-min Rain = 0
KWE2 211115Z 05003KT 14/14 A2992 RMK A01 T01440144  RH  100%=      5-min Rain = 0
KWE2 211116Z 06002KT 14/14 A2992 RMK A01 T01440144  RH  100%=      5-min Rain = 0
KWE2 211117Z 06002KT 14/14 A2992 RMK A01 T01440144  RH  100%=      5-min Rain = 0
KWE2 211118Z 04002KT 14/14 A2992 RMK A01 T01440144  RH  100%=      5-min Rain = 0
KWE2 211119Z 06002KT 14/14 A2992 RMK A01 T01440144  RH  100%=      5-min Rain = 0
KWE2 211120Z 06002KT 14/14 A2992 RMK A01 T01440144  RH  100%=      5-min Rain = 0
KWE2 211121Z 07002KT 14/14 A2992 RMK A01 T01440144  RH  100%=      5-min Rain = 0
KWE2 211122Z 08002KT 14/14 A2992 RMK A01 T01440144  RH  100%=      5-min Rain = 0
KWE2 211123Z 08002KT 14/14 A2992 RMK A01 T01440144  RH  100%=      5-min Rain = 0
KWE2 211124Z 09003KT 14/14 A2993 RMK A01 T01440144  RH  100%=      5-min Rain = 0
KWE2 211125Z 08002KT 14/14 A2993 RMK A01 T01440144  RH  100%=      5-min Rain = 0
KWE2 211126Z 08002KT 14/14 A2993 RMK A01 T01440144  RH  100%=      5-min Rain = 0
KWE2 211127Z 08002KT 14/14 A2993 RMK A01 T01440144  RH  100%=      5-min Rain = 0
KWE2 211128Z 09002KT 14/14 A2993 RMK A01 T01440144  RH  100%=      5-min Rain = 0
KWE2 211129Z 09002KT 14/14 A2993 RMK A01 T01440144  RH  100%=      5-min Rain = 0
KWE2 211130Z 08002KT 14/14 A2993 RMK A01 T01440144  RH  100%=      5-min Rain = 0
KWE2 211131Z 08003KT 14/14 A2993 RMK A01 T01440144  RH  100%=      5-min Rain = 0
KWE2 211132Z 08002KT 14/14 A2993 RMK A01 T01440144  RH  100%=      5-min Rain = 0
KWE2 211133Z 08003KT 14/14 A2993 RMK A01 T01440144  RH  100%=      5-min Rain = 0
KWE2 211134Z 08002KT 14/14 A2993 RMK A01 T01440144  RH  100%=      5-min Rain = 0
KWE2 211135Z 07002KT 14/14 A2993 RMK A01 T01440144  RH  100%=      5-min Rain = 0
KWE2 211136Z 06002KT 14/14 A2993 RMK A01 T01440144  RH  100%=      5-min Rain = 0
KWE2 211137Z 05002KT 14/14 A2993 RMK A01 T01440144  RH  100%=      5-min Rain = 0
KWE2 211138Z 04002KT 14/14 A2993 RMK A01 T01440144  RH  100%=      5-min Rain = 0
KWE2 211139Z 04002KT 14/14 A2993 RMK A01 T01440144  RH  100%=      5-min Rain = 0
KWE2 211140Z 03002KT 14/14 A2993 RMK A01 T01440144  RH  100%=      5-min Rain = 0
KWE2 211141Z 02003KT 14/14 A2993 RMK A01 T01440144  RH  100%=      5-min Rain = 0
KWE2 211142Z 01003KT 14/14 A2993 RMK A01 T01440144  RH  100%=      5-min Rain = 0
KWE2 211143Z 00003KT 14/14 A2993 RMK A01 T01440144  RH  100%=      5-min Rain = 0
KWE2 211144Z 00003KT 14/14 A2993 RMK A01 T01440144  RH  100%=      5-min Rain = 0
KWE2 211145Z 36003KT 14/14 A2993 RMK A01 T01440144  RH  100%=      5-min Rain = 0
KWE2 211146Z 35003KT 14/14 A2993 RMK A01 T01440144  RH  100%=      5-min Rain = 0
KWE2 211147Z 35003KT 14/14 A2993 RMK A01 T01440144  RH  100%=      5-min Rain = 0
KWE2 211148Z 35003KT 14/14 A2993 RMK A01 T01440144  RH  100%=      5-min Rain = 0
KWE2 211149Z 36003KT 14/14 A2993 RMK A01 T01440144  RH  100%=      5-min Rain = 0
KWE2 211150Z 36003KT 14/14 A2993 RMK A01 T01430144  RH  100%=      5-min Rain = 0
KWE2 211151Z 36003KT 14/14 A2993 RMK A01 T01430143  RH  100%=      5-min Rain = 0
KWE2 211152Z 35003KT 14/14 A2993 RMK A01 T01430143  RH  100%=      5-min Rain = 0
KWE2 211153Z 35002KT 14/14 A2993 RMK A01 T01430144  RH  100%=      5-min Rain = 0
KWE2 211154Z 35001KT 14/14 A2993 RMK A01 T01430143  RH  100%=      5-min Rain = 0
KWE2 211155Z 36001KT 14/14 A2993 RMK A01 T01430143  RH  100%=      5-min Rain = 0
KWE2 211156Z 36001KT 14/14 A2993 RMK A01 T01430143  RH  100%=      5-min Rain = 0
KWE2 211157Z 35000KT 14/14 A2993 RMK A01 T01430143  RH  100%=      5-min Rain = 0
KWE2 211158Z 36001KT 14/14 A2993 RMK A01 T01430143  RH  100%=      5-min Rain = 0
KWE2 211159Z 01001KT 14/14 A2993 RMK A01 T01430143  RH  100%=      5-min Rain = 0
KWE2 211200Z 01000KT 14/14 A2993 RMK A01 T01430143  RH  100%=      5-min Rain = 0
KWE2 211201Z 01001KT 14/14 A2993 RMK A01 T01430143  RH  100%=      5-min Rain = 0
KWE2 211202Z 01001KT 14/14 A2993 RMK A01 T01430143  RH  100%=      5-min Rain = 0
KWE2 211203Z 01001KT 14/14 A2993 RMK A01 T01430143  RH  100%=      5-min Rain = 0
KWE2 211204Z 34001KT 14/14 A2993 RMK A01 T01430143  RH  100%=      5-min Rain = 0
KWE2 211205Z 34001KT 14/14 A2993 RMK A01 T01430143  RH  100%=      5-min Rain = 0
KWE2 211206Z 35001KT 14/14 A2993 RMK A01 T01430143  RH  100%=      5-min Rain = 0
KWE2 211207Z 36001KT 14/14 A2993 RMK A01 T01430143  RH  100%=      5-min Rain = 0
KWE2 211208Z 00001KT 14/14 A2993 RMK A01 T01430143  RH  100%=      5-min Rain = 0
KWE2 211209Z 00001KT 14/14 A2993 RMK A01 T01430143  RH  100%=      5-min Rain = 0
KWE2 211210Z 01002KT 14/14 A2993 RMK A01 T01420142  RH  100%=      5-min Rain = 0
KWE2 211211Z 02002KT 14/14 A2993 RMK A01 T01420142  RH  100%=      5-min Rain = 0
KWE2 211212Z 03002KT 14/14 A2993 RMK A01 T01420142  RH  100%=      5-min Rain = 0
KWE2 211213Z 04002KT 14/14 A2993 RMK A01 T01420143  RH  100%=      5-min Rain = 0
KWE2 211214Z 05003KT 14/14 A2993 RMK A01 T01420142  RH  100%=      5-min Rain = 0
KWE2 211215Z 04003KT 14/14 A2993 RMK A01 T01420142  RH  100%=      5-min Rain = 0
KWE2 211216Z 05002KT 14/14 A2993 RMK A01 T01420142  RH  100%=      5-min Rain = 0
KWE2 211217Z 04002KT 14/14 A2993 RMK A01 T01420142  RH  100%=      5-min Rain = 0
KWE2 211218Z 04002KT 14/14 A2993 RMK A01 T01420142  RH  100%=      5-min Rain = 0
KWE2 211219Z 04002KT 14/14 A2994 RMK A01 T01420142  RH  100%=      5-min Rain = 0
KWE2 211220Z 03002KT 14/14 A2994 RMK A01 T01420142  RH  100%=      5-min Rain = 0
KWE2 211221Z 04002KT 14/14 A2994 RMK A01 T01420142  RH  100%=      5-min Rain = 0
KWE2 211222Z 04002KT 14/14 A2994 RMK A01 T01420142  RH  100%=      5-min Rain = 0
KWE2 211223Z 04003KT 14/14 A2994 RMK A01 T01430143  RH  100%=      5-min Rain = 0
KWE2 211224Z 04003KT 14/14 A2994 RMK A01 T01420143  RH  100%=      5-min Rain = 0
KWE2 211225Z 04002KT 14/14 A2994 RMK A01 T01420142  RH  100%=      5-min Rain = 0
KWE2 211226Z 04002KT 14/14 A2994 RMK A01 T01420142  RH  100%=      5-min Rain = 0
KWE2 211227Z 04003KT 14/14 A2994 RMK A01 T01420142  RH  100%=      5-min Rain = 0
KWE2 211228Z 03003KT 14/14 A2994 RMK A01 T01420142  RH  100%=      5-min Rain = 0
KWE2 211229Z 03002KT 14/14 A2994 RMK A01 T01420142  RH  100%=      5-min Rain = 0
KWE2 211230Z 03003KT 14/14 A2994 RMK A01 T01420142  RH  100%=      5-min Rain = 0
KWE2 211231Z 03002KT 14/14 A2994 RMK A01 T01410142  RH  100%=      5-min Rain = 0
KWE2 211232Z 03002KT 14/14 A2994 RMK A01 T01420142  RH  100%=      5-min Rain = 0
KWE2 211233Z 04002KT 14/14 A2994 RMK A01 T01410141  RH  100%=      5-min Rain = 0
KWE2 211234Z 05002KT 14/14 A2994 RMK A01 T01410141  RH  100%=      5-min Rain = 0
KWE2 211235Z 05003KT 14/14 A2994 RMK A01 T01420142  RH  100%=      5-min Rain = 0
KWE2 211236Z 05004KT 14/14 A2994 RMK A01 T01420142  RH  100%=      5-min Rain = 0
KWE2 211237Z 05004KT 14/14 A2994 RMK A01 T01420142  RH  100%=      5-min Rain = 0
KWE2 211238Z 05004KT 14/14 A2994 RMK A01 T01420142  RH  100%=      5-min Rain = 0
KWE2 211239Z 05003KT 14/14 A2994 RMK A01 T01410141  RH  100%=      5-min Rain = 0
KWE2 211240Z 04002KT 14/14 A2994 RMK A01 T01410141  RH  100%=      5-min Rain = 0
KWE2 211241Z 03003KT 14/14 A2994 RMK A01 T01410142  RH  100%=      5-min Rain = 0
KWE2 211242Z 05002KT 14/14 A2994 RMK A01 T01410142  RH  100%=      5-min Rain = 0
KWE2 211243Z 06002KT 14/14 A2994 RMK A01 T01420142  RH  100%=      5-min Rain = 0
KWE2 211244Z 06002KT 14/14 A2994 RMK A01 T01410142  RH  100%=      5-min Rain = 0
KWE2 211245Z 06002KT 14/14 A2994 RMK A01 T01410142  RH  100%=      5-min Rain = 0
KWE2 211246Z 06003KT 14/14 A2994 RMK A01 T01410142  RH  100%=      5-min Rain = 0
KWE2 211247Z 06003KT 14/14 A2994 RMK A01 T01420142  RH  100%=      5-min Rain = 0
KWE2 211248Z 06003KT 14/14 A2994 RMK A01 T01420142  RH  100%=      5-min Rain = 0
KWE2 211249Z 06003KT 14/14 A2994 RMK A01 T01420142  RH  100%=      5-min Rain = 0
KWE2 211250Z 06003KT 14/14 A2994 RMK A01 T01410141  RH  100%=      5-min Rain = 0
KWE2 211251Z 06003KT 14/14 A2994 RMK A01 T01420142  RH  100%=      5-min Rain = 0
KWE2 211252Z 05004KT 14/14 A2994 RMK A01 T01420142  RH  100%=      5-min Rain = 0
KWE2 211253Z 05004KT 14/14 A2994 RMK A01 T01410142  RH  100%=      5-min Rain = 0
KWE2 211254Z 05004KT 14/14 A2994 RMK A01 T01410142  RH  100%=      5-min Rain = 0
KWE2 211255Z 05004KT 14/14 A2994 RMK A01 T01420142  RH  100%=      5-min Rain = 0
KWE2 211256Z 04003KT 14/14 A2995 RMK A01 T01410141  RH  100%=      5-min Rain = 0
KWE2 211257Z 04003KT 14/14 A2995 RMK A01 T01410142  RH  100%=      5-min Rain = 0
KWE2 211258Z 04004KT 14/14 A2995 RMK A01 T01410142  RH  100%=      5-min Rain = 0
KWE2 211259Z 05004KT 14/14 A2995 RMK A01 T01410142  RH  100%=      5-min Rain = 0
KWE2 211300Z 05004KT 14/14 A2995 RMK A01 T01410141  RH  100%=      5-min Rain = 0
KWE2 211301Z 05005KT 14/14 A2994 RMK A01 T01410142  RH  100%=      5-min Rain = 0
KWE2 211302Z 05005KT 14/14 A2994 RMK A01 T01410142  RH  100%=      5-min Rain = 0
KWE2 211303Z 05005KT 14/14 A2994 RMK A01 T01410142  RH  100%=      5-min Rain = 0
KWE2 211304Z 05004KT 14/14 A2994 RMK A01 T01420142  RH  100%=      5-min Rain = 0
KWE2 211305Z 05004KT 14/14 A2994 RMK A01 T01420142  RH  100%=      5-min Rain = 0
KWE2 211306Z 05004KT 14/14 A2994 RMK A01 T01410141  RH  100%=      5-min Rain = 0
KWE2 211307Z 05004KT 14/14 A2994 RMK A01 T01420142  RH  100%=      5-min Rain = 0
KWE2 211308Z 05005KT 14/14 A2994 RMK A01 T01410141  RH  100%=      5-min Rain = 0
KWE2 211309Z 05005KT 14/14 A2994 RMK A01 T01410141  RH  100%=      5-min Rain = 0
KWE2 211310Z 05005KT 14/14 A2994 RMK A01 T01420142  RH  100%=      5-min Rain = 0
KWE2 211311Z 05005KT 14/14 A2994 RMK A01 T01410142  RH  100%=      5-min Rain = 0
KWE2 211312Z 05005KT 14/14 A2994 RMK A01 T01410142  RH  100%=      5-min Rain = 0
KWE2 211313Z 05004KT 14/14 A2995 RMK A01 T01420142  RH  100%=      5-min Rain = 0
KWE2 211314Z 05004KT 14/14 A2995 RMK A01 T01420142  RH  100%=      5-min Rain = 0
KWE2 211315Z 05004KT 14/14 A2995 RMK A01 T01420142  RH  100%=      5-min Rain = 0
KWE2 211316Z 05003KT 14/14 A2995 RMK A01 T01420142  RH  100%=      5-min Rain = 0
KWE2 211317Z 05003KT 14/14 A2995 RMK A01 T01420142  RH  100%=      5-min Rain = 0
KWE2 211318Z 05003KT 14/14 A2995 RMK A01 T01420142  RH  100%=      5-min Rain = 0
KWE2 211319Z 05003KT 14/14 A2995 RMK A01 T01420142  RH  100%=      5-min Rain = 0
KWE2 211320Z 05003KT 14/14 A2995 RMK A01 T01420142  RH  100%=      5-min Rain = 0
KWE2 211321Z 05003KT 14/14 A2995 RMK A01 T01430143  RH  100%=      5-min Rain = 0
KWE2 211322Z 06003KT 14/14 A2995 RMK A01 T01420143  RH  100%=      5-min Rain = 0
KWE2 211323Z 06003KT 14/14 A2995 RMK A01 T01420142  RH  100%=      5-min Rain = 0
KWE2 211324Z 06003KT 14/14 A2995 RMK A01 T01420143  RH  100%=      5-min Rain = 0
KWE2 211325Z 06002KT 14/14 A2995 RMK A01 T01420143  RH  100%=      5-min Rain = 0
KWE2 211326Z 06002KT 14/14 A2995 RMK A01 T01430143  RH  100%=      5-min Rain = 0
KWE2 211327Z 06002KT 14/14 A2995 RMK A01 T01430143  RH  100%=      5-min Rain = 0
KWE2 211328Z 06002KT 14/14 A2996 RMK A01 T01430143  RH  100%=      5-min Rain = 0
KWE2 211329Z 07002KT 14/14 A2996 RMK A01 T01430143  RH  100%=      5-min Rain = 0
KWE2 211330Z 06002KT 14/14 A2996 RMK A01 T01430143  RH  100%=      5-min Rain = 0
KWE2 211331Z 06002KT 14/14 A2996 RMK A01 T01430143  RH  100%=      5-min Rain = 0
KWE2 211332Z 06002KT 14/14 A2996 RMK A01 T01430143  RH  100%=      5-min Rain = 0
KWE2 211333Z 06002KT 14/14 A2996 RMK A01 T01430144  RH  100%=      5-min Rain = 0
KWE2 211334Z 06003KT 14/14 A2996 RMK A01 T01430143  RH  100%=      5-min Rain = 0
KWE2 211335Z 06003KT 14/14 A2996 RMK A01 T01430143  RH  100%=      5-min Rain = 0
KWE2 211336Z 06003KT 14/14 A2996 RMK A01 T01430143  RH  100%=      5-min Rain = 0
KWE2 211337Z 06003KT 14/14 A2996 RMK A01 T01430143  RH  100%=      5-min Rain = 0
KWE2 211338Z 07003KT 14/14 A2996 RMK A01 T01440144  RH  100%=      5-min Rain = 0
KWE2 211339Z 07003KT 14/14 A2996 RMK A01 T01440144  RH  100%=      5-min Rain = 0
KWE2 211340Z 07003KT 14/14 A2996 RMK A01 T01440144  RH  100%=      5-min Rain = 0
KWE2 211341Z 07003KT 14/14 A2996 RMK A01 T01440144  RH  100%=      5-min Rain = 0
KWE2 211342Z 07004KT 14/14 A2996 RMK A01 T01440144  RH  100%=      5-min Rain = 0
KWE2 211343Z 07004KT 14/14 A2996 RMK A01 T01440144  RH  100%=      5-min Rain = 0
KWE2 211344Z 07004KT 14/14 A2996 RMK A01 T01440144  RH  100%=      5-min Rain = 0
KWE2 211345Z 07003KT 14/14 A2996 RMK A01 T01440144  RH  100%=      5-min Rain = 0
KWE2 211346Z 07004KT 14/14 A2996 RMK A01 T01440144  RH  100%=      5-min Rain = 0
KWE2 211347Z 07004KT 14/14 A2996 RMK A01 T01440144  RH  100%=      5-min Rain = 0
KWE2 211348Z 08003KT 14/14 A2996 RMK A01 T01440144  RH  100%=      5-min Rain = 0
KWE2 211349Z 08003KT 14/14 A2996 RMK A01 T01440144  RH  100%=      5-min Rain = 0
KWE2 211350Z 08004KT 14/14 A2996 RMK A01 T01440144  RH  100%=      5-min Rain = 0
KWE2 211351Z 09003KT 15/15 A2996 RMK A01 T01450145  RH  100%=      5-min Rain = 0
KWE2 211352Z 09003KT 15/15 A2996 RMK A01 T01450145  RH  100%=      5-min Rain = 0
KWE2 211353Z 08004KT 15/15 A2996 RMK A01 T01450145  RH  100%=      5-min Rain = 0
KWE2 211354Z 08004KT 15/15 A2996 RMK A01 T01450146  RH  100%=      5-min Rain = 0
KWE2 211355Z 09004KT 15/15 A2996 RMK A01 T01460146  RH  100%=      5-min Rain = 0
KWE2 211356Z 09004KT 15/15 A2996 RMK A01 T01460146  RH  100%=      5-min Rain = 0
KWE2 211357Z 08004KT 15/15 A2996 RMK A01 T01460146  RH  100%=      5-min Rain = 0
KWE2 211358Z 08005KT 15/15 A2996 RMK A01 T01460146  RH  100%=      5-min Rain = 0
KWE2 211359Z 09005KT 15/15 A2996 RMK A01 T01470147  RH  100%=      5-min Rain = 0
KWE2 211400Z 09005KT 15/15 A2996 RMK A01 T01470147  RH  100%=      5-min Rain = 0
KWE2 211401Z 09006KT 15/15 A2996 RMK A01 T01470147  RH  100%=      5-min Rain = 0
KWE2 211402Z 09005KT 15/15 A2996 RMK A01 T01470147  RH  100%=      5-min Rain = 0
KWE2 211403Z 10005KT 15/15 A2996 RMK A01 T01470147  RH  100%=      5-min Rain = 0
KWE2 211404Z 10005KT 15/15 A2996 RMK A01 T01470147  RH  100%=      5-min Rain = 0
KWE2 211405Z 11005KT 15/15 A2997 RMK A01 T01470147  RH  100%=      5-min Rain = 0
KWE2 211406Z 10005KT 15/15 A2997 RMK A01 T01470147  RH  100%=      5-min Rain = 0
KWE2 211407Z 10005KT 15/15 A2997 RMK A01 T01470147  RH  100%=      5-min Rain = 0
KWE2 211408Z 10005KT 15/15 A2997 RMK A01 T01470147  RH  100%=      5-min Rain = 0
KWE2 211409Z 11005KT 15/15 A2997 RMK A01 T01470147  RH  100%=      5-min Rain = 0
KWE2 211410Z 11005KT 15/15 A2997 RMK A01 T01470147  RH  100%=      5-min Rain = 0
KWE2 211411Z 11004KT 15/15 A2997 RMK A01 T01470147  RH  100%=      5-min Rain = 0
KWE2 211412Z 11003KT 15/15 A2997 RMK A01 T01470147  RH  100%=      5-min Rain = 0
KWE2 211413Z 11004KT 15/15 A2997 RMK A01 T01470147  RH  100%=      5-min Rain = 0
KWE2 211414Z 11004KT 15/15 A2997 RMK A01 T01470147  RH  100%=      5-min Rain = 0
KWE2 211415Z 12004KT 15/15 A2997 RMK A01 T01470148  RH  100%=      5-min Rain = 0
KWE2 211416Z 12004KT 15/15 A2997 RMK A01 T01480148  RH  100%=      5-min Rain = 0
KWE2 211417Z 11004KT 15/15 A2997 RMK A01 T01480148  RH  100%=      5-min Rain = 0
KWE2 211418Z 11004KT 15/15 A2997 RMK A01 T01480148  RH  100%=      5-min Rain = 0
KWE2 211419Z 11003KT 15/15 A2997 RMK A01 T01480149  RH  100%=      5-min Rain = 0
KWE2 211420Z 10004KT 15/15 A2997 RMK A01 T01490149  RH  100%=      5-min Rain = 0
KWE2 211421Z 11004KT 15/15 A2997 RMK A01 T01490149  RH  100%=      5-min Rain = 0
KWE2 211422Z 10004KT 15/15 A2997 RMK A01 T01490149  RH  100%=      5-min Rain = 0
KWE2 211423Z 10005KT 15/15 A2997 RMK A01 T01500150  RH  100%=      5-min Rain = 0
KWE2 211424Z 10005KT 15/15 A2997 RMK A01 T01500150  RH  100%=      5-min Rain = 0
KWE2 211425Z 10005KT 15/15 A2997 RMK A01 T01500150  RH  100%=      5-min Rain = 0
KWE2 211426Z 10005KT 15/15 A2997 RMK A01 T01500150  RH  100%=      5-min Rain = 0
KWE2 211427Z 10004KT 15/15 A2997 RMK A01 T01500150  RH  100%=      5-min Rain = 0
KWE2 211428Z 10007KT 15/15 A2997 RMK A01 T01500150  RH  100%=      5-min Rain = 0
KWE2 211429Z 11006KT 15/15 A2997 RMK A01 T01500150  RH  100%=      5-min Rain = 0
KWE2 211430Z 11005KT 15/15 A2997 RMK A01 T01510151  RH  100%=      5-min Rain = 0
KWE2 211431Z 11005KT 15/15 A2997 RMK A01 T01510151  RH  100%=      5-min Rain = 0
KWE2 211432Z 09004KT 15/15 A2997 RMK A01 T01510151  RH  100%=      5-min Rain = 0
KWE2 211433Z 09005KT 15/15 A2997 RMK A01 T01510151  RH  100%=      5-min Rain = 0
KWE2 211434Z 09005KT 15/15 A2997 RMK A01 T01510151  RH  100%=      5-min Rain = 0
KWE2 211435Z 09006KT 15/15 A2997 RMK A01 T01510151  RH  100%=      5-min Rain = 0
KWE2 211436Z 10006KT 15/15 A2997 RMK A01 T01510151  RH  100%=      5-min Rain = 0
KWE2 211437Z 10007KT 15/15 A2997 RMK A01 T01510151  RH  100%=      5-min Rain = 0
KWE2 211438Z 09005KT 15/15 A2997 RMK A01 T01510151  RH  100%=      5-min Rain = 0
KWE2 211439Z 09006KT 15/15 A2997 RMK A01 T01500151  RH  100%=      5-min Rain = 0
KWE2 211440Z 10006KT 15/15 A2997 RMK A01 T01510151  RH  100%=      5-min Rain = 0
KWE2 211441Z 10005KT 15/15 A2997 RMK A01 T01510151  RH  100%=      5-min Rain = 0
KWE2 211442Z 10005KT 15/15 A2998 RMK A01 T01510151  RH  100%=      5-min Rain = 0
KWE2 211443Z 10004KT 15/15 A2998 RMK A01 T01510151  RH  100%=      5-min Rain = 0
KWE2 211444Z 10005KT 15/15 A2998 RMK A01 T01510151  RH  100%=      5-min Rain = 0
KWE2 211445Z 10006KT 15/15 A2998 RMK A01 T01510151  RH  100%=      5-min Rain = 0
KWE2 211446Z 11006KT 15/15 A2998 RMK A01 T01510151  RH  100%=      5-min Rain = 0
KWE2 211447Z 10006KT 15/15 A2998 RMK A01 T01510151  RH  100%=      5-min Rain = 0
KWE2 211448Z 11006KT 15/15 A2998 RMK A01 T01510151  RH  100%=      5-min Rain = 0
KWE2 211449Z 10006KT 15/15 A2998 RMK A01 T01510151  RH  100%=      5-min Rain = 0
KWE2 211450Z 11006KT 15/15 A2998 RMK A01 T01510152  RH  100%=      5-min Rain = 0
KWE2 211451Z 10006KT 15/15 A2998 RMK A01 T01520152  RH  100%=      5-min Rain = 0
KWE2 211452Z 11007KT 15/15 A2998 RMK A01 T01510152  RH  100%=      5-min Rain = 0
KWE2 211453Z 11006KT 15/15 A2998 RMK A01 T01510152  RH  100%=      5-min Rain = 0
KWE2 211454Z 11007KT 15/15 A2998 RMK A01 T01510152  RH  100%=      5-min Rain = 0
KWE2 211455Z 11006KT 15/15 A2998 RMK A01 T01510152  RH  100%=      5-min Rain = 0
KWE2 211456Z 11006KT 15/15 A2998 RMK A01 T01520152  RH  100%=      5-min Rain = 0
KWE2 211457Z 11007KT 15/15 A2998 RMK A01 T01520152  RH  100%=      5-min Rain = 0
KWE2 211458Z 10006KT 15/15 A2998 RMK A01 T01520152  RH  100%=      5-min Rain = 0
KWE2 211459Z 10006KT 15/15 A2998 RMK A01 T01520152  RH  100%=      5-min Rain = 0
KWE2 211500Z 09007KT 15/15 A2998 RMK A01 T01520152  RH  100%=      5-min Rain = 0
KWE2 211501Z 09006KT 15/15 A2998 RMK A01 T01520152  RH  100%=      5-min Rain = 0
KWE2 211502Z 09006KT 15/15 A2998 RMK A01 T01520152  RH  100%=      5-min Rain = 0
KWE2 211503Z 10007KT 15/15 A2998 RMK A01 T01520152  RH  100%=      5-min Rain = 0
KWE2 211504Z 10007KT 15/15 A2998 RMK A01 T01520152  RH  100%=      5-min Rain = 0
KWE2 211505Z 10007KT 15/15 A2998 RMK A01 T01520152  RH  100%=      5-min Rain = 0
KWE2 211506Z 09006KT 15/15 A2998 RMK A01 T01520152  RH  100%=      5-min Rain = 0
KWE2 211507Z 09005KT 15/15 A2998 RMK A01 T01520152  RH  100%=      5-min Rain = 0
KWE2 211508Z 09006KT 15/15 A2998 RMK A01 T01520152  RH  100%=      5-min Rain = 0
KWE2 211509Z 09007KT 15/15 A2998 RMK A01 T01520152  RH  100%=      5-min Rain = 0
KWE2 211510Z 09005KT 15/15 A2998 RMK A01 T01520152  RH  100%=      5-min Rain = 0
KWE2 211511Z 09006KT 15/15 A2998 RMK A01 T01520152  RH  100%=      5-min Rain = 0
KWE2 211512Z 09006KT 15/15 A2998 RMK A01 T01520152  RH  100%=      5-min Rain = 0
KWE2 211513Z 09006KT 15/15 A2998 RMK A01 T01520153  RH  100%=      5-min Rain = 0
KWE2 211514Z 09005KT 15/15 A2998 RMK A01 T01530153  RH  100%=      5-min Rain = 0
KWE2 211515Z 09006KT 15/15 A2998 RMK A01 T01520153  RH  100%=      5-min Rain = 0
KWE2 211516Z 09006KT 15/15 A2998 RMK A01 T01520153  RH  100%=      5-min Rain = 0
KWE2 211517Z 09005KT 15/15 A2998 RMK A01 T01530153  RH  100%=      5-min Rain = 0
KWE2 211518Z 09006KT 15/15 A2998 RMK A01 T01530153  RH  100%=      5-min Rain = 0
KWE2 211519Z 09006KT 15/15 A2998 RMK A01 T01520153  RH  100%=      5-min Rain = 0
KWE2 211520Z 09005KT 15/15 A2998 RMK A01 T01520153  RH  100%=      5-min Rain = 0
KWE2 211521Z 09005KT 15/15 A2998 RMK A01 T01530153  RH  100%=      5-min Rain = 0
KWE2 211522Z 09006KT 15/15 A2998 RMK A01 T01530153  RH  100%=      5-min Rain = 0
KWE2 211523Z 10005KT 15/15 A2998 RMK A01 T01530153  RH  100%=      5-min Rain = 0
KWE2 211524Z 10005KT 15/15 A2998 RMK A01 T01530153  RH  100%=      5-min Rain = 0
KWE2 211525Z 09005KT 15/15 A2998 RMK A01 T01530153  RH  100%=      5-min Rain = 0
KWE2 211526Z 09005KT 15/15 A2998 RMK A01 T01540154  RH  100%=      5-min Rain = 0
KWE2 211527Z 10006KT 15/15 A2998 RMK A01 T01530153  RH  100%=      5-min Rain = 0
KWE2 211528Z 10006KT 15/15 A2998 RMK A01 T01530153  RH  100%=      5-min Rain = 0
KWE2 211529Z 10005KT 15/15 A2998 RMK A01 T01530153  RH  100%=      5-min Rain = 0
KWE2 211530Z 09005KT 15/15 A2998 RMK A01 T01540154  RH  100%=      5-min Rain = 0
KWE2 211531Z 10004KT 15/15 A2998 RMK A01 T01540154  RH  100%=      5-min Rain = 0
KWE2 211532Z 10005KT 15/15 A2998 RMK A01 T01540154  RH  100%=      5-min Rain = 0
KWE2 211533Z 11006KT 15/15 A2998 RMK A01 T01540154  RH  100%=      5-min Rain = 0
KWE2 211534Z 10005KT 15/16 A2998 RMK A01 T01540155  RH  100%=      5-min Rain = 0
KWE2 211535Z 10005KT 16/16 A2998 RMK A01 T01550155  RH  100%=      5-min Rain = 0
KWE2 211536Z 10005KT 16/16 A2998 RMK A01 T01550155  RH  100%=      5-min Rain = 0
KWE2 211537Z 11006KT 16/16 A2999 RMK A01 T01550155  RH  100%=      5-min Rain = 0
KWE2 211538Z 11005KT 16/16 A2999 RMK A01 T01550155  RH  100%=      5-min Rain = 0
KWE2 211539Z 11006KT 16/16 A2999 RMK A01 T01550156  RH  100%=      5-min Rain = 0
KWE2 211540Z 11006KT 16/16 A2999 RMK A01 T01560156  RH  100%=      5-min Rain = 0
KWE2 211541Z 10005KT 16/16 A2999 RMK A01 T01550156  RH  100%=      5-min Rain = 0
KWE2 211542Z 10005KT 16/16 A2999 RMK A01 T01560156  RH  100%=      5-min Rain = 0
KWE2 211543Z 10007KT 16/16 A2999 RMK A01 T01560156  RH  100%=      5-min Rain = 0
KWE2 211544Z 10007KT 16/16 A2999 RMK A01 T01560156  RH  100%=      5-min Rain = 0
KWE2 211545Z 11005KT 16/16 A2999 RMK A01 T01550155  RH  100%=      5-min Rain = 0
KWE2 211546Z 11005KT 16/16 A2999 RMK A01 T01560156  RH  100%=      5-min Rain = 0
KWE2 211547Z 10005KT 16/16 A2999 RMK A01 T01560156  RH  100%=      5-min Rain = 0
KWE2 211548Z 11004KT 16/16 A2999 RMK A01 T01560157  RH  100%=      5-min Rain = 0
KWE2 211549Z 11007KT 16/16 A2999 RMK A01 T01560157  RH  100%=      5-min Rain = 0
KWE2 211550Z 11006KT 16/16 A2999 RMK A01 T01560156  RH  100%=      5-min Rain = 0
KWE2 211551Z 11006KT 16/16 A2999 RMK A01 T01560156  RH  100%=      5-min Rain = 0
KWE2 211552Z 10006KT 16/16 A2999 RMK A01 T01560156  RH  100%=      5-min Rain = 0
KWE2 211553Z 10007KT 16/16 A2999 RMK A01 T01560156  RH  100%=      5-min Rain = 0
KWE2 211554Z 10006KT 16/16 A2999 RMK A01 T01560156  RH  100%=      5-min Rain = 0
KWE2 211555Z 09005KT 16/16 A2999 RMK A01 T01560156  RH  100%=      5-min Rain = 0
KWE2 211556Z 07004KT 16/16 A2999 RMK A01 T01560156  RH  100%=      5-min Rain = 0
KWE2 211557Z 03007KT 16/16 A2999 RMK A01 T01560156  RH  100%=      5-min Rain = 0
KWE2 211558Z 02012G17KT 14/14 A2999 RMK A01 T01440144  RH  100%=      5-min Rain = 0
KWE2 211559Z 03013KT 13/13 A2999 RMK A01 T01270127  RH  100%=      5-min Rain = 0
KWE2 211600Z 02010KT 12/12 A2999 RMK A01 T01220122  RH  100%=      5-min Rain = 0
KWE2 211601Z 00007KT 12/12 A2999 RMK A01 T01200121  RH  100%=      5-min Rain = 0
KWE2 211602Z 02011KT 12/12 A2999 RMK A01 T01200120  RH  100%=      5-min Rain = 0
KWE2 211603Z 03012KT 12/12 A2999 RMK A01 T01190119  RH  100%=      5-min Rain = 0
KWE2 211604Z 02011KT 12/12 A2999 RMK A01 T01170117  RH  100%=      5-min Rain = 0
KWE2 211605Z 03013KT 12/12 A2999 RMK A01 T01160116  RH  100%=      5-min Rain = 0
KWE2 211606Z 02013KT 12/12 A2999 RMK A01 T01150115  RH  100%=      5-min Rain = 0
KWE2 211607Z 03013KT 12/12 A2999 RMK A01 T01150115  RH  100%=      5-min Rain = 0
KWE2 211608Z 02013KT 11/11 A2999 RMK A01 T01140114  RH  100%=      5-min Rain = 0
KWE2 211609Z 03014KT 11/11 A2999 RMK A01 T01130113  RH  100%=      5-min Rain = 0
KWE2 211610Z 03014KT 11/11 A2999 RMK A01 T01120112  RH  100%=      5-min Rain = 0
KWE2 211611Z 03015KT 11/11 A2999 RMK A01 T01110111  RH  100%=      5-min Rain = 0
KWE2 211612Z 03016KT 11/11 A2999 RMK A01 T01100110  RH  100%=      5-min Rain = 0
KWE2 211613Z 03016KT 11/11 A2999 RMK A01 T01080109  RH  100%=      5-min Rain = 0
KWE2 211614Z 03014KT 11/11 A2999 RMK A01 T01070107  RH  100%=      5-min Rain = 0
KWE2 211615Z 03013KT 11/11 A2999 RMK A01 T01070107  RH  100%=      5-min Rain = 0
KWE2 211616Z 03010KT 11/11 A30 RMK A01 T01060106  RH  100%=      5-min Rain = 0
KWE2 211617Z 03012KT 11/11 A2999 RMK A01 T01060106  RH  100%=      5-min Rain = 0
KWE2 211618Z 02014KT 11/11 A2999 RMK A01 T01050105  RH  100%=      5-min Rain = 0
KWE2 211619Z 02013KT 10/10 A2999 RMK A01 T01030103  RH  100%=      5-min Rain = 0
KWE2 211620Z 02014KT 10/10 A2999 RMK A01 T01020102  RH  100%=      5-min Rain = 0
KWE2 211621Z 02012KT 10/10 A2999 RMK A01 T01010101  RH  100%=      5-min Rain = 0
KWE2 211622Z 02011KT 10/10 A30 RMK A01 T01010101  RH  100%=      5-min Rain = 0
KWE2 211623Z 01010KT 10/10 A30 RMK A01 T01010101  RH  100%=      5-min Rain = 0
KWE2 211624Z 02013KT 10/10 A30 RMK A01 T01010101  RH  100%=      5-min Rain = 0
KWE2 211625Z 02012KT 10/10 A30 RMK A01 T01000101  RH  100%=      5-min Rain = 0
KWE2 211626Z 02013KT 10/10 A30 RMK A01 T01000100  RH  100%=      5-min Rain = 0
KWE2 211627Z 02011KT 10/10 A30 RMK A01 T00990099  RH  100%=      5-min Rain = 0
KWE2 211628Z 02009KT 10/10 A30 RMK A01 T00990099  RH  100%=      5-min Rain = 0
KWE2 211629Z 01010KT 10/10 A30 RMK A01 T00990100  RH  100%=      5-min Rain = 0
KWE2 211630Z 01012KT 10/10 A30 RMK A01 T00990099  RH  100%=      5-min Rain = 0
KWE2 211631Z 01012KT 10/10 A30 RMK A01 T00990099  RH  100%=      5-min Rain = 0
KWE2 211632Z 02012KT 10/10 A30 RMK A01 T00980098  RH  100%=      5-min Rain = 0
KWE2 211633Z 02011KT 10/10 A30 RMK A01 T00970097  RH  100%=      5-min Rain = 0
KWE2 211634Z 03012KT 10/10 A30 RMK A01 T00960096  RH  100%=      5-min Rain = 0
KWE2 211635Z 03011KT 10/10 A30 RMK A01 T00950095  RH  100%=      5-min Rain = 0
KWE2 211636Z 02011KT 09/10 A30 RMK A01 T00940095  RH  100%=      5-min Rain = 0
KWE2 211637Z 03011KT 10/10 A30 RMK A01 T00950095  RH  100%=      5-min Rain = 0
KWE2 211638Z 03013KT 09/09 A30 RMK A01 T00940094  RH  100%=      5-min Rain = 0
KWE2 211639Z 02013KT 09/09 A30 RMK A01 T00930093  RH  100%=      5-min Rain = 0
KWE2 211640Z 03012KT 09/09 A30 RMK A01 T00920093  RH  100%=      5-min Rain = 0
KWE2 211641Z 03011KT 09/09 A30 RMK A01 T00920092  RH  100%=      5-min Rain = 0
KWE2 211642Z 02013KT 09/09 A2999 RMK A01 T00910091  RH  100%=      5-min Rain = 0
KWE2 211643Z 02013KT 09/09 A30 RMK A01 T00900090  RH  100%=      5-min Rain = 0
KWE2 211644Z 03012KT 09/09 A30 RMK A01 T00890089  RH  100%=      5-min Rain = 0
KWE2 211645Z 04012KT 09/09 A30 RMK A01 T00890089  RH  100%=      5-min Rain = 0
KWE2 211646Z 03013KT 09/09 A30 RMK A01 T00890089  RH  100%=      5-min Rain = 0
KWE2 211647Z 03014KT 09/09 A30 RMK A01 T00890089  RH  100%=      5-min Rain = 0
KWE2 211648Z 03013KT 09/09 A30 RMK A01 T00890089  RH  100%=      5-min Rain = 0
KWE2 211649Z 03012KT 09/09 A30 RMK A01 T00880088  RH  100%=      5-min Rain = 0
KWE2 211650Z 02014KT 09/09 A30 RMK A01 T00880088  RH  100%=      5-min Rain = 0
KWE2 211651Z 03013KT 09/09 A30 RMK A01 T00880088  RH  100%=      5-min Rain = 0
KWE2 211652Z 03012KT 09/09 A30 RMK A01 T00890089  RH  100%=      5-min Rain = 0
KWE2 211653Z 03013KT 09/09 A30 RMK A01 T00880089  RH  100%=      5-min Rain = 0
KWE2 211654Z 03012KT 09/09 A30 RMK A01 T00890089  RH  100%=      5-min Rain = 0
KWE2 211655Z 03014KT 09/09 A30 RMK A01 T00890089  RH  100%=      5-min Rain = 0
KWE2 211656Z 03011KT 09/09 A30 RMK A01 T00880088  RH  100%=      5-min Rain = 0
KWE2 211657Z 03011KT 09/09 A30 RMK A01 T00890089  RH  100%=      5-min Rain = 0
KWE2 211658Z 03013KT 09/09 A30 RMK A01 T00890089  RH  100%=      5-min Rain = 0
KWE2 211659Z 02012KT 09/09 A30 RMK A01 T00890089  RH  100%=      5-min Rain = 0
KWE2 211700Z 03012KT 09/09 A30 RMK A01 T00890089  RH  100%=      5-min Rain = 0
KWE2 211701Z 03012KT 09/09 A30 RMK A01 T00890089  RH  100%=      5-min Rain = 0
KWE2 211702Z 02010KT 09/09 A30 RMK A01 T00880089  RH  100%=      5-min Rain = 0
KWE2 211703Z 03010KT 09/09 A30 RMK A01 T00880088  RH  100%=      5-min Rain = 0
KWE2 211704Z 03012KT 09/09 A30 RMK A01 T00880088  RH  100%=      5-min Rain = 0
KWE2 211705Z 03012KT 09/09 A30 RMK A01 T00880088  RH  100%=      5-min Rain = 0
KWE2 211706Z 03013KT 09/09 A3001 RMK A01 T00880088  RH  100%=      5-min Rain = 0
KWE2 211707Z 03012KT 09/09 A3001 RMK A01 T00880088  RH  100%=      5-min Rain = 0
KWE2 211708Z 03010KT 09/09 A3001 RMK A01 T00870088  RH  100%=      5-min Rain = 0
KWE2 211709Z 02011KT 09/09 A3001 RMK A01 T00890089  RH  100%=      5-min Rain = 0
KWE2 211710Z 02012KT 09/09 A3001 RMK A01 T00890089  RH  100%=      5-min Rain = 0
KWE2 211711Z 02013KT 09/09 A3001 RMK A01 T00880089  RH  100%=      5-min Rain = 0
KWE2 211712Z 02013KT 09/09 A3001 RMK A01 T00880088  RH  100%=      5-min Rain = 0
KWE2 211713Z 03013KT 09/09 A3001 RMK A01 T00880088  RH  100%=      5-min Rain = 0
KWE2 211714Z 03012KT 09/09 A30 RMK A01 T00880088  RH  100%=      5-min Rain = 0
KWE2 211715Z 03014KT 09/09 A3001 RMK A01 T00880088  RH  100%=      5-min Rain = 0
KWE2 211716Z 03014KT 09/09 A30 RMK A01 T00880088  RH  100%=      5-min Rain = 0
KWE2 211717Z 03013KT 09/09 A30 RMK A01 T00880088  RH  100%=      5-min Rain = 0
KWE2 211718Z 03013KT 09/09 A30 RMK A01 T00880088  RH  100%=      5-min Rain = 0
KWE2 211719Z 03013KT 09/09 A30 RMK A01 T00880088  RH  100%=      5-min Rain = 0
KWE2 211720Z 03013KT 09/09 A30 RMK A01 T00880088  RH  100%=      5-min Rain = 0
KWE2 211721Z 03014KT 09/09 A30 RMK A01 T00870087  RH  100%=      5-min Rain = 0
KWE2 211722Z 04011KT 09/09 A30 RMK A01 T00880088  RH  100%=      5-min Rain = 0
KWE2 211723Z 04012KT 09/09 A30 RMK A01 T00880088  RH  100%=      5-min Rain = 0
KWE2 211724Z 04009KT 09/09 A30 RMK A01 T00880088  RH  100%=      5-min Rain = 0
KWE2 211725Z 02011KT 09/09 A30 RMK A01 T00890089  RH  100%=      5-min Rain = 0
KWE2 211726Z 03011KT 09/09 A30 RMK A01 T00890089  RH  100%=      5-min Rain = 0
KWE2 211727Z 03011KT 09/09 A30 RMK A01 T00890089  RH  100%=      5-min Rain = 0
KWE2 211728Z 02011KT 09/09 A30 RMK A01 T00890089  RH  100%=      5-min Rain = 0
KWE2 211729Z 02012KT 09/09 A30 RMK A01 T00890089  RH  100%=      5-min Rain = 0
KWE2 211730Z 02011KT 09/09 A30 RMK A01 T00890089  RH  100%=      5-min Rain = 0
KWE2 211731Z 03012KT 09/09 A30 RMK A01 T00890089  RH  100%=      5-min Rain = 0
KWE2 211732Z 03012KT 09/09 A30 RMK A01 T00890089  RH  100%=      5-min Rain = 0
KWE2 211733Z 03011KT 09/09 A30 RMK A01 T00890089  RH  100%=      5-min Rain = 0
KWE2 211734Z 03010KT 09/09 A30 RMK A01 T00900090  RH  100%=      5-min Rain = 0
KWE2 211735Z 04010KT 09/09 A2999 RMK A01 T00910091  RH  100%=      5-min Rain = 0
KWE2 211736Z 04011KT 09/09 A2999 RMK A01 T00910091  RH  100%=      5-min Rain = 0
KWE2 211737Z 04012KT 09/09 A2999 RMK A01 T00920092  RH  100%=      5-min Rain = 0
KWE2 211738Z 04014KT 09/09 A2999 RMK A01 T00920092  RH  100%=      5-min Rain = 0
KWE2 211739Z 05012KT 09/09 A2999 RMK A01 T00910092  RH  100%=      5-min Rain = 0
KWE2 211740Z 05012KT 09/09 A2999 RMK A01 T00920092  RH  100%=      5-min Rain = 0
KWE2 211741Z 05012KT 09/09 A2999 RMK A01 T00920092  RH  100%=      5-min Rain = 0
KWE2 211742Z 04012KT 09/09 A2999 RMK A01 T00920092  RH  100%=      5-min Rain = 0
KWE2 211743Z 05014KT 09/09 A2999 RMK A01 T00930093  RH  100%=      5-min Rain = 0
KWE2 211744Z 04013KT 09/09 A2999 RMK A01 T00920092  RH  100%=      5-min Rain = 0
KWE2 211745Z 04013KT 09/09 A2999 RMK A01 T00930093  RH  100%=      5-min Rain = 0
KWE2 211746Z 05012KT 09/09 A2999 RMK A01 T00930093  RH  100%=      5-min Rain = 0
KWE2 211747Z 05010KT 09/09 A2999 RMK A01 T00940094  RH  100%=      5-min Rain = 0
KWE2 211748Z 05011KT 09/09 A2998 RMK A01 T00940094  RH  100%=      5-min Rain = 0
KWE2 211749Z 05013KT 10/10 A2998 RMK A01 T00950095  RH  100%=      5-min Rain = 0
KWE2 211750Z 04012KT 10/10 A2998 RMK A01 T00950095  RH  100%=      5-min Rain = 0
KWE2 211751Z 04013KT 10/10 A2998 RMK A01 T00950095  RH  100%=      5-min Rain = 0
KWE2 211752Z 04014KT 09/09 A2998 RMK A01 T00940094  RH  100%=      5-min Rain = 0
KWE2 211753Z 05011KT 09/09 A2998 RMK A01 T00940094  RH  100%=      5-min Rain = 0
KWE2 211754Z 05010KT 09/09 A2998 RMK A01 T00940094  RH  100%=      5-min Rain = 0
KWE2 211755Z 06011KT 10/10 A2998 RMK A01 T00950095  RH  100%=      5-min Rain = 0
KWE2 211756Z 05012KT 10/10 A2998 RMK A01 T00950096  RH  100%=      5-min Rain = 0
KWE2 211757Z 04013KT 10/10 A2998 RMK A01 T00950095  RH  100%=      5-min Rain = 0
KWE2 211758Z 05010KT 10/10 A2998 RMK A01 T00950095  RH  100%=      5-min Rain = 0
KWE2 211759Z 05007KT 10/10 A2998 RMK A01 T00950095  RH  100%=      5-min Rain = 0
KWE2 211800Z 06011KT 10/10 A2998 RMK A01 T00950096  RH  100%=      5-min Rain = 0
KWE2 211801Z 06010KT 10/10 A2998 RMK A01 T00950095  RH  100%=      5-min Rain = 0
KWE2 211802Z 06008KT 09/09 A2998 RMK A01 T00940094  RH  100%=      5-min Rain = 0
KWE2 211803Z 05008KT 10/10 A2998 RMK A01 T00950095  RH  100%=      5-min Rain = 0
KWE2 211804Z 06009KT 10/10 A2998 RMK A01 T00950095  RH  100%=      5-min Rain = 0
KWE2 211805Z 06007KT 10/10 A2998 RMK A01 T00950096  RH  100%=      5-min Rain = 0
KWE2 211806Z 05010KT 09/09 A2998 RMK A01 T00940094  RH  100%=      5-min Rain = 0
KWE2 211807Z 05012KT 09/09 A2998 RMK A01 T00930093  RH  100%=      5-min Rain = 0
KWE2 211808Z 05010KT 09/09 A2997 RMK A01 T00910091  RH  100%=      5-min Rain = 0
KWE2 211809Z 06011KT 09/09 A2998 RMK A01 T00900090  RH  100%=      5-min Rain = 0
KWE2 211810Z 05009KT 09/09 A2998 RMK A01 T00900090  RH  100%=      5-min Rain = 0
KWE2 211811Z 04009KT 09/09 A2998 RMK A01 T00890089  RH  100%=      5-min Rain = 0
KWE2 211812Z 05009KT 09/09 A2998 RMK A01 T00900090  RH  100%=      5-min Rain = 0
KWE2 211813Z 06010KT 09/09 A2998 RMK A01 T00900090  RH  100%=      5-min Rain = 0
KWE2 211814Z 06008KT 09/09 A2998 RMK A01 T00900090  RH  100%=      5-min Rain = 0
KWE2 211815Z 06010KT 09/09 A2998 RMK A01 T00900090  RH  100%=      5-min Rain = 0
KWE2 211816Z 06011KT 09/09 A2997 RMK A01 T00890089  RH  100%=      5-min Rain = 0
KWE2 211817Z 06012KT 09/09 A2997 RMK A01 T00880088  RH  100%=      5-min Rain = 0
KWE2 211818Z 06011KT 09/09 A2998 RMK A01 T00880088  RH  100%=      5-min Rain = 0
KWE2 211819Z 05012KT 09/09 A2997 RMK A01 T00870087  RH  100%=      5-min Rain = 0
KWE2 211820Z 05011KT 09/09 A2997 RMK A01 T00880088  RH  100%=      5-min Rain = 0
KWE2 211821Z 05010KT 09/09 A2997 RMK A01 T00870087  RH  100%=      5-min Rain = 0
KWE2 211822Z 05010KT 09/09 A2998 RMK A01 T00880088  RH  100%=      5-min Rain = 0
KWE2 211823Z 05011KT 09/09 A2998 RMK A01 T00870087  RH  100%=      5-min Rain = 0
KWE2 211824Z 05009KT 09/09 A2998 RMK A01 T00870087  RH  100%=      5-min Rain = 0
KWE2 211825Z 05005KT 09/09 A2998 RMK A01 T00880088  RH  100%=      5-min Rain = 0
KWE2 211826Z 06009KT 09/09 A2998 RMK A01 T00890089  RH  100%=      5-min Rain = 0
KWE2 211827Z 06010KT 09/09 A2998 RMK A01 T00890089  RH  100%=      5-min Rain = 0
KWE2 211828Z 06011KT 09/09 A2998 RMK A01 T00870087  RH  100%=      5-min Rain = 0
KWE2 211829Z 06012KT 09/09 A2998 RMK A01 T00860086  RH  100%=      5-min Rain = 0
KWE2 211830Z 06009KT 09/09 A2998 RMK A01 T00850085  RH  100%=      5-min Rain = 0
KWE2 211831Z 06011KT 09/09 A2998 RMK A01 T00850085  RH  100%=      5-min Rain = 0
KWE2 211832Z 06008KT 09/09 A2998 RMK A01 T00850085  RH  100%=      5-min Rain = 0
KWE2 211833Z 07009KT 09/09 A2998 RMK A01 T00850085  RH  100%=      5-min Rain = 0
KWE2 211834Z 07010KT 08/09 A2997 RMK A01 T00840085  RH  100%=      5-min Rain = 0
KWE2 211835Z 07010KT 08/08 A2997 RMK A01 T00840084  RH  100%=      5-min Rain = 0
KWE2 211836Z 06008KT 08/08 A2997 RMK A01 T00840084  RH  100%=      5-min Rain = 0
KWE2 211837Z 06007KT 08/08 A2997 RMK A01 T00840084  RH  100%=      5-min Rain = 0
KWE2 211838Z 05009KT 08/08 A2997 RMK A01 T00840084  RH  100%=      5-min Rain = 0
KWE2 211839Z 06008KT 09/09 A2997 RMK A01 T00850085  RH  100%=      5-min Rain = 0
KWE2 211840Z 06011KT 09/09 A2997 RMK A01 T00850085  RH  100%=      5-min Rain = 0
KWE2 211841Z 05010KT 08/08 A2997 RMK A01 T00830084  RH  100%=      5-min Rain = 0
KWE2 211842Z 06009KT 08/08 A2997 RMK A01 T00830084  RH  100%=      5-min Rain = 0
KWE2 211843Z 06009KT 08/08 A2997 RMK A01 T00830083  RH  100%=      5-min Rain = 0
KWE2 211844Z 05009KT 08/08 A2997 RMK A01 T00830083  RH  100%=      5-min Rain = 0
KWE2 211845Z 06010KT 08/08 A2997 RMK A01 T00830083  RH  100%=      5-min Rain = 0
KWE2 211846Z 04009KT 08/08 A2997 RMK A01 T00820082  RH  100%=      5-min Rain = 0
KWE2 211847Z 04010KT 08/08 A2997 RMK A01 T00820082  RH  100%=      5-min Rain = 0
KWE2 211848Z 04009KT 08/08 A2997 RMK A01 T00820082  RH  100%=      5-min Rain = 0
KWE2 211849Z 05009KT 08/08 A2997 RMK A01 T00820082  RH  100%=      5-min Rain = 0
KWE2 211850Z 05010KT 08/08 A2997 RMK A01 T00820082  RH  100%=      5-min Rain = 0
KWE2 211851Z 04010KT 08/08 A2997 RMK A01 T00810081  RH  100%=      5-min Rain = 0
KWE2 211852Z 03011KT 08/08 A2997 RMK A01 T00810081  RH  100%=      5-min Rain = 0
KWE2 211853Z 04011KT 08/08 A2997 RMK A01 T00800081  RH  100%=      5-min Rain = 0
KWE2 211854Z 05012KT 08/08 A2997 RMK A01 T00800080  RH  100%=      5-min Rain = 0
KWE2 211855Z 05009KT 08/08 A2997 RMK A01 T00790079  RH  100%=      5-min Rain = 0
KWE2 211856Z 05009KT 08/08 A2997 RMK A01 T00800080  RH  100%=      5-min Rain = 0
KWE2 211857Z 05009KT 08/08 A2997 RMK A01 T00800080  RH  100%=      5-min Rain = 0
KWE2 211858Z 05010KT 08/08 A2996 RMK A01 T00800080  RH  100%=      5-min Rain = 0
KWE2 211859Z 04009KT 08/08 A2996 RMK A01 T00790079  RH  100%=      5-min Rain = 0
KWE2 211900Z 04009KT 08/08 A2996 RMK A01 T00790079  RH  100%=      5-min Rain = 0
KWE2 211901Z 03012KT 08/08 A2996 RMK A01 T00800080  RH  100%=      5-min Rain = 0
KWE2 211902Z 04010KT 08/08 A2996 RMK A01 T00790080  RH  100%=      5-min Rain = 0
KWE2 211903Z 04010KT 08/08 A2996 RMK A01 T00800080  RH  100%=      5-min Rain = 0
KWE2 211904Z 04009KT 08/08 A2996 RMK A01 T00800080  RH  100%=      5-min Rain = 0
KWE2 211905Z 03010KT 08/08 A2996 RMK A01 T00800080  RH  100%=      5-min Rain = 0
KWE2 211906Z 04011KT 08/08 A2996 RMK A01 T00790079  RH  100%=      5-min Rain = 0
KWE2 211907Z 03010KT 08/08 A2996 RMK A01 T00790079  RH  100%=      5-min Rain = 0
KWE2 211908Z 04010KT 08/08 A2996 RMK A01 T00790079  RH  100%=      5-min Rain = 0
KWE2 211909Z 05011KT 08/08 A2996 RMK A01 T00790079  RH  100%=      5-min Rain = 0
KWE2 211910Z 05011KT 08/08 A2996 RMK A01 T00790079  RH  100%=      5-min Rain = 0
KWE2 211911Z 04010KT 08/08 A2996 RMK A01 T00780078  RH  100%=      5-min Rain = 0
KWE2 211912Z 04009KT 08/08 A2996 RMK A01 T00780078  RH  100%=      5-min Rain = 0
KWE2 211913Z 05010KT 08/08 A2996 RMK A01 T00780078  RH  100%=      5-min Rain = 0
KWE2 211914Z 05010KT 08/08 A2996 RMK A01 T00780078  RH  100%=      5-min Rain = 0
KWE2 211915Z 04011KT 08/08 A2996 RMK A01 T00780078  RH  100%=      5-min Rain = 0
KWE2 211916Z 04011KT 08/08 A2996 RMK A01 T00760077  RH  100%=      5-min Rain = 0
KWE2 211917Z 04012KT 08/08 A2996 RMK A01 T00760076  RH  100%=      5-min Rain = 0
KWE2 211918Z 04012KT 08/08 A2996 RMK A01 T00760076  RH  100%=      5-min Rain = 0
KWE2 211919Z 04012KT 08/08 A2996 RMK A01 T00760076  RH  100%=      5-min Rain = 0
KWE2 211920Z 04012KT 08/08 A2996 RMK A01 T00750075  RH  100%=      5-min Rain = 0
KWE2 211921Z 03011KT 08/08 A2995 RMK A01 T00750075  RH  100%=      5-min Rain = 0
KWE2 211922Z 03013KT 08/08 A2995 RMK A01 T00760076  RH  100%=      5-min Rain = 0
KWE2 211923Z 03012KT 08/08 A2995 RMK A01 T00760076  RH  100%=      5-min Rain = 0
KWE2 211924Z 03010KT 08/08 A2995 RMK A01 T00750075  RH  100%=      5-min Rain = 0
KWE2 211925Z 03011KT 08/08 A2995 RMK A01 T00760076  RH  100%=      5-min Rain = 0
KWE2 211926Z 03010KT 08/08 A2995 RMK A01 T00760076  RH  100%=      5-min Rain = 0
KWE2 211927Z 04009KT 08/08 A2995 RMK A01 T00780078  RH  100%=      5-min Rain = 0
KWE2 211928Z 03011KT 08/08 A2995 RMK A01 T00780078  RH  100%=      5-min Rain = 0
KWE2 211929Z 03012KT 08/08 A2995 RMK A01 T00770077  RH  100%=      5-min Rain = 0
KWE2 211930Z 03010KT 08/08 A2995 RMK A01 T00760076  RH  100%=      5-min Rain = 0
KWE2 211931Z 03012KT 08/08 A2995 RMK A01 T00760076  RH  100%=      5-min Rain = 0
KWE2 211932Z 03013KT 08/08 A2995 RMK A01 T00750075  RH  100%=      5-min Rain = 0
KWE2 211933Z 04012KT 08/08 A2995 RMK A01 T00750075  RH  100%=      5-min Rain = 0
KWE2 211934Z 04009KT 08/08 A2994 RMK A01 T00750075  RH  100%=      5-min Rain = 0
KWE2 211935Z 04010KT 08/08 A2994 RMK A01 T00760076  RH  100%=      5-min Rain = 0
KWE2 211936Z 04012KT 08/08 A2994 RMK A01 T00760076  RH  100%=      5-min Rain = 0
KWE2 211937Z 04011KT 08/08 A2994 RMK A01 T00760076  RH  100%=      5-min Rain = 0
KWE2 211938Z 04011KT 07/08 A2994 RMK A01 T00740075  RH  100%=      5-min Rain = 0
KWE2 211939Z 04012KT 08/08 A2994 RMK A01 T00750075  RH  100%=      5-min Rain = 0
KWE2 211940Z 04011KT 07/07 A2994 RMK A01 T00740074  RH  100%=      5-min Rain = 0
KWE2 211941Z 04013KT 08/08 A2994 RMK A01 T00750075  RH  100%=      5-min Rain = 0
KWE2 211942Z 04010KT 08/08 A2994 RMK A01 T00750075  RH  100%=      5-min Rain = 0
KWE2 211943Z 04011KT 08/08 A2994 RMK A01 T00750075  RH  100%=      5-min Rain = 0
KWE2 211944Z 03012KT 08/08 A2994 RMK A01 T00760076  RH  100%=      5-min Rain = 0
KWE2 211945Z 03012KT 08/08 A2994 RMK A01 T00760076  RH  100%=      5-min Rain = 0
KWE2 211946Z 05012KT 08/08 A2994 RMK A01 T00760076  RH  100%=      5-min Rain = 0
KWE2 211947Z 04009KT 08/08 A2994 RMK A01 T00760076  RH  100%=      5-min Rain = 0
KWE2 211948Z 04012KT 08/08 A2994 RMK A01 T00760076  RH  100%=      5-min Rain = 0
KWE2 211949Z 04012KT 08/08 A2994 RMK A01 T00760076  RH  100%=      5-min Rain = 0
KWE2 211950Z 04010KT 08/08 A2994 RMK A01 T00750075  RH  100%=      5-min Rain = 0
KWE2 211951Z 04010KT 08/08 A2994 RMK A01 T00760076  RH  100%=      5-min Rain = 0
KWE2 211952Z 04010KT 08/08 A2994 RMK A01 T00760076  RH  100%=      5-min Rain = 0
KWE2 211953Z 04011KT 08/08 A2994 RMK A01 T00760076  RH  100%=      5-min Rain = 0
KWE2 211954Z 04010KT 08/08 A2994 RMK A01 T00760076  RH  100%=      5-min Rain = 0
KWE2 211955Z 04010KT 08/08 A2994 RMK A01 T00760076  RH  100%=      5-min Rain = 0
KWE2 211956Z 05011KT 08/08 A2993 RMK A01 T00760076  RH  100%=      5-min Rain = 0
KWE2 211957Z 05012KT 08/08 A2993 RMK A01 T00760076  RH  100%=      5-min Rain = 0
KWE2 211958Z 04011KT 08/08 A2993 RMK A01 T00760076  RH  100%=      5-min Rain = 0
KWE2 211959Z 05011KT 08/08 A2993 RMK A01 T00760076  RH  100%=      5-min Rain = 0
KWE2 212000Z 04010KT 08/08 A2993 RMK A01 T00760076  RH  100%=      5-min Rain = 0
KWE2 212001Z 03010KT 08/08 A2993 RMK A01 T00760076  RH  100%=      5-min Rain = 0
KWE2 212002Z 02011KT 08/08 A2993 RMK A01 T00760076  RH  100%=      5-min Rain = 0
KWE2 212003Z 03010KT 08/08 A2993 RMK A01 T00760076  RH  100%=      5-min Rain = 0
KWE2 212004Z 03011G16KT 08/08 A2993 RMK A01 T00760076  RH  100%=      5-min Rain = 0
KWE2 212005Z 04011KT 08/08 A2993 RMK A01 T00760076  RH  100%=      5-min Rain = 0
KWE2 212006Z 04010KT 08/08 A2993 RMK A01 T00760076  RH  100%=      5-min Rain = 0
KWE2 212007Z 04009KT 08/08 A2993 RMK A01 T00770077  RH  100%=      5-min Rain = 0
KWE2 212008Z 04010KT 08/08 A2993 RMK A01 T00770077  RH  100%=      5-min Rain = 0
KWE2 212009Z 04011KT 08/08 A2993 RMK A01 T00770077  RH  100%=      5-min Rain = 0
KWE2 212010Z 04011KT 08/08 A2993 RMK A01 T00760076  RH  100%=      5-min Rain = 0
KWE2 212011Z 04009KT 08/08 A2993 RMK A01 T00760076  RH  100%=      5-min Rain = 0
KWE2 212012Z 04012KT 08/08 A2993 RMK A01 T00760076  RH  100%=      5-min Rain = 0
KWE2 212013Z 04012KT 08/08 A2993 RMK A01 T00750075  RH  100%=      5-min Rain = 0
KWE2 212014Z 04013KT 08/08 A2993 RMK A01 T00750075  RH  100%=      5-min Rain = 0
KWE2 212015Z 03012KT 08/08 A2993 RMK A01 T00750075  RH  100%=      5-min Rain = 0
KWE2 212016Z 03012KT 08/08 A2993 RMK A01 T00750075  RH  100%=      5-min Rain = 0
KWE2 212017Z 04012KT 08/08 A2993 RMK A01 T00750075  RH  100%=      5-min Rain = 0
KWE2 212018Z 05014KT 08/08 A2993 RMK A01 T00750075  RH  100%=      5-min Rain = 0
KWE2 212019Z 05011KT 08/08 A2993 RMK A01 T00750075  RH  100%=      5-min Rain = 0
KWE2 212020Z 04009KT 08/08 A2993 RMK A01 T00750075  RH  100%=      5-min Rain = 0
KWE2 212021Z 03009KT 08/08 A2993 RMK A01 T00750075  RH  100%=      5-min Rain = 0
KWE2 212022Z 05011KT 08/08 A2993 RMK A01 T00770077  RH  100%=      5-min Rain = 0
KWE2 212023Z 04013KT 08/08 A2993 RMK A01 T00760077  RH  100%=      5-min Rain = 0
KWE2 212024Z 05012KT 08/08 A2993 RMK A01 T00750076  RH  100%=      5-min Rain = 0
KWE2 212025Z 04012KT 08/08 A2992 RMK A01 T00750075  RH  100%=      5-min Rain = 0
KWE2 212026Z 04011KT 08/08 A2992 RMK A01 T00750075  RH  100%=      5-min Rain = 0
KWE2 212027Z 05015KT 08/08 A2992 RMK A01 T00750075  RH  100%=      5-min Rain = 0
KWE2 212028Z 04014KT 07/07 A2992 RMK A01 T00740074  RH  100%=      5-min Rain = 0
KWE2 212029Z 04013KT 07/07 A2992 RMK A01 T00740074  RH  100%=      5-min Rain = 0
KWE2 212030Z 04013KT 07/07 A2992 RMK A01 T00740074  RH  100%=      5-min Rain = 0
KWE2 212031Z 04013KT 07/07 A2992 RMK A01 T00740074  RH  100%=      5-min Rain = 0
KWE2 212032Z 04012KT 07/07 A2992 RMK A01 T00740074  RH  100%=      5-min Rain = 0
KWE2 212033Z 04012KT 07/07 A2992 RMK A01 T00740074  RH  100%=      5-min Rain = 0
KWE2 212034Z 04009KT 08/08 A2992 RMK A01 T00750075  RH  100%=      5-min Rain = 0
KWE2 212035Z 04009KT 08/08 A2992 RMK A01 T00760076  RH  100%=      5-min Rain = 0
KWE2 212036Z 04009KT 08/08 A2993 RMK A01 T00770077  RH  100%=      5-min Rain = 0
KWE2 212037Z 04009KT 08/08 A2993 RMK A01 T00770078  RH  100%=      5-min Rain = 0
KWE2 212038Z 04009KT 08/08 A2993 RMK A01 T00780078  RH  100%=      5-min Rain = 0
KWE2 212039Z 05011KT 08/08 A2993 RMK A01 T00770077  RH  100%=      5-min Rain = 0
KWE2 212040Z 04012KT 08/08 A2993 RMK A01 T00760076  RH  100%=      5-min Rain = 0
KWE2 212041Z 04013KT 08/08 A2993 RMK A01 T00750075  RH  100%=      5-min Rain = 0
KWE2 212042Z 04011KT 08/08 A2993 RMK A01 T00750075  RH  100%=      5-min Rain = 0
KWE2 212043Z 04013KT 08/08 A2993 RMK A01 T00750075  RH  100%=      5-min Rain = 0
KWE2 212044Z 04011KT 08/08 A2993 RMK A01 T00750075  RH  100%=      5-min Rain = 0
KWE2 212045Z 05014KT 08/08 A2993 RMK A01 T00750075  RH  100%=      5-min Rain = 0
KWE2 212046Z 04013KT 08/08 A2993 RMK A01 T00750075  RH  100%=      5-min Rain = 0
KWE2 212047Z 04013KT 08/08 A2993 RMK A01 T00750075  RH  100%=      5-min Rain = 0
KWE2 212048Z 04010KT 07/07 A2993 RMK A01 T00740074  RH  100%=      5-min Rain = 0
KWE2 212049Z 04009KT 08/08 A2993 RMK A01 T00750075  RH  100%=      5-min Rain = 0
KWE2 212050Z 05011KT 08/08 A2993 RMK A01 T00750075  RH  100%=      5-min Rain = 0
KWE2 212051Z 04012KT 08/08 A2993 RMK A01 T00750076  RH  100%=      5-min Rain = 0
KWE2 212052Z 03009KT 08/08 A2993 RMK A01 T00760076  RH  100%=      5-min Rain = 0
KWE2 212053Z 02012KT 08/08 A2993 RMK A01 T00760076  RH  100%=      5-min Rain = 0
KWE2 212054Z 03013KT 08/08 A2993 RMK A01 T00750075  RH  100%=      5-min Rain = 0
KWE2 212055Z 03012KT 08/08 A2993 RMK A01 T00750075  RH  100%=      5-min Rain = 0
KWE2 212056Z 02012KT 08/08 A2993 RMK A01 T00750075  RH  100%=      5-min Rain = 0
KWE2 212057Z 03012KT 08/08 A2993 RMK A01 T00750075  RH  100%=      5-min Rain = 0
KWE2 212058Z 03013KT 08/08 A2993 RMK A01 T00750075  RH  100%=      5-min Rain = 0
KWE2 212059Z 03013KT 08/08 A2993 RMK A01 T00750075  RH  100%=      5-min Rain = 0
KWE2 212100Z 03014KT 08/08 A2994 RMK A01 T00750075  RH  100%=      5-min Rain = 0
KWE2 212101Z 03013KT 07/07 A2994 RMK A01 T00740074  RH  100%=      5-min Rain = 0
KWE2 212102Z 03013KT 07/07 A2994 RMK A01 T00740074  RH  100%=      5-min Rain = 0
KWE2 212103Z 03013KT 07/07 A2994 RMK A01 T00740074  RH  100%=      5-min Rain = 0
KWE2 212104Z 03012KT 07/07 A2994 RMK A01 T00740074  RH  100%=      5-min Rain = 0
KWE2 212105Z 03012KT 07/07 A2994 RMK A01 T00740074  RH  100%=      5-min Rain = 0
KWE2 212106Z 03013KT 07/07 A2994 RMK A01 T00740074  RH  100%=      5-min Rain = 0
KWE2 212107Z 04012KT 07/07 A2993 RMK A01 T00740074  RH  100%=      5-min Rain = 0
KWE2 212108Z 04011KT 07/07 A2993 RMK A01 T00740074  RH  100%=      5-min Rain = 0
KWE2 212109Z 05009KT 07/07 A2994 RMK A01 T00740074  RH  100%=      5-min Rain = 0
KWE2 212110Z 05012KT 08/08 A2993 RMK A01 T00750075  RH  100%=      5-min Rain = 0
KWE2 212111Z 03011KT 08/08 A2994 RMK A01 T00750075  RH  100%=      5-min Rain = 0
KWE2 212112Z 03012KT 08/08 A2994 RMK A01 T00750075  RH  100%=      5-min Rain = 0
KWE2 212113Z 03012KT 08/08 A2994 RMK A01 T00750075  RH  100%=      5-min Rain = 0
KWE2 212114Z 03012KT 07/07 A2994 RMK A01 T00740074  RH  100%=      5-min Rain = 0
KWE2 212115Z 03011KT 07/07 A2994 RMK A01 T00740074  RH  100%=      5-min Rain = 0
KWE2 212116Z 03011KT 07/07 A2994 RMK A01 T00740074  RH  100%=      5-min Rain = 0
KWE2 212117Z 03012KT 07/07 A2994 RMK A01 T00740074  RH  100%=      5-min Rain = 0
KWE2 212118Z 04010KT 07/07 A2993 RMK A01 T00740074  RH  100%=      5-min Rain = 0
KWE2 212119Z 05011KT 07/07 A2993 RMK A01 T00740074  RH  100%=      5-min Rain = 0
KWE2 212120Z 05015KT 08/08 A2993 RMK A01 T00750075  RH  100%=      5-min Rain = 0
KWE2 212121Z 05012KT 07/07 A2993 RMK A01 T00740074  RH  100%=      5-min Rain = 0
KWE2 212122Z 04011KT 07/07 A2993 RMK A01 T00740074  RH  100%=      5-min Rain = 0
KWE2 212123Z 05013KT 07/07 A2993 RMK A01 T00740074  RH  100%=      5-min Rain = 0
KWE2 212124Z 05013KT 07/07 A2993 RMK A01 T00740074  RH  100%=      5-min Rain = 0
KWE2 212125Z 05013KT 07/07 A2993 RMK A01 T00740074  RH  100%=      5-min Rain = 0
KWE2 212126Z 04013KT 07/07 A2993 RMK A01 T00740074  RH  100%=      5-min Rain = 0
KWE2 212127Z 03012KT 07/07 A2993 RMK A01 T00740074  RH  100%=      5-min Rain = 0
KWE2 212128Z 04012KT 07/07 A2993 RMK A01 T00740074  RH  100%=      5-min Rain = 0
KWE2 212129Z 04010KT 07/07 A2993 RMK A01 T00740074  RH  100%=      5-min Rain = 0
KWE2 212130Z 04011KT 07/08 A2993 RMK A01 T00740075  RH  100%=      5-min Rain = 0
KWE2 212131Z 04010KT 08/08 A2993 RMK A01 T00750075  RH  100%=      5-min Rain = 0
KWE2 212132Z 05009KT 07/07 A2993 RMK A01 T00740074  RH  100%=      5-min Rain = 0
KWE2 212133Z 04011KT 07/07 A2993 RMK A01 T00740074  RH  100%=      5-min Rain = 0
KWE2 212134Z 04012KT 07/07 A2993 RMK A01 T00740074  RH  100%=      5-min Rain = 0
KWE2 212135Z 04009KT 07/07 A2993 RMK A01 T00730073  RH  100%=      5-min Rain = 0
KWE2 212136Z 03010KT 07/07 A2993 RMK A01 T00730074  RH  100%=      5-min Rain = 0
KWE2 212137Z 04012KT 07/07 A2993 RMK A01 T00740074  RH  100%=      5-min Rain = 0
KWE2 212138Z 05012KT 07/07 A2993 RMK A01 T00740074  RH  100%=      5-min Rain = 0
KWE2 212139Z 04010KT 07/07 A2993 RMK A01 T00730073  RH  100%=      5-min Rain = 0
KWE2 212140Z 03011KT 07/07 A2993 RMK A01 T00740074  RH  100%=      5-min Rain = 0
KWE2 212141Z 04012KT 07/07 A2993 RMK A01 T00740074  RH  100%=      5-min Rain = 0
KWE2 212142Z 03012KT 07/07 A2993 RMK A01 T00740074  RH  100%=      5-min Rain = 0
KWE2 212143Z 04013KT 07/07 A2993 RMK A01 T00740074  RH  100%=      5-min Rain = 0
KWE2 212144Z 04011KT 07/07 A2993 RMK A01 T00730073  RH  100%=      5-min Rain = 0
KWE2 212145Z 03011KT 07/07 A2993 RMK A01 T00730073  RH  100%=      5-min Rain = 0
KWE2 212146Z 03012KT 07/07 A2993 RMK A01 T00740074  RH  100%=      5-min Rain = 0
KWE2 212147Z 04012KT 07/07 A2993 RMK A01 T00740074  RH  100%=      5-min Rain = 0
KWE2 212148Z 04013KT 07/07 A2993 RMK A01 T00740074  RH  100%=      5-min Rain = 0
KWE2 212149Z 04012KT 07/07 A2993 RMK A01 T00740074  RH  100%=      5-min Rain = 0
KWE2 212150Z 04012KT 07/07 A2993 RMK A01 T00730073  RH  100%=      5-min Rain = 0
KWE2 212151Z 05012KT 07/07 A2993 RMK A01 T00730073  RH  100%=      5-min Rain = 0
KWE2 212152Z 04012KT 07/07 A2993 RMK A01 T00740074  RH  100%=      5-min Rain = 0
KWE2 212153Z 03011G16KT 07/07 A2993 RMK A01 T00740074  RH  100%=      5-min Rain = 0
KWE2 212154Z 03013KT 07/07 A2993 RMK A01 T00730073  RH  100%=      5-min Rain = 0
KWE2 212155Z 04010KT 07/07 A2993 RMK A01 T00730073  RH  100%=      5-min Rain = 0
KWE2 212156Z 03012KT 07/07 A2993 RMK A01 T00730073  RH  100%=      5-min Rain = 0
KWE2 212157Z 03013KT 07/07 A2993 RMK A01 T00730073  RH  100%=      5-min Rain = 0
KWE2 212158Z 04011KT 07/07 A2993 RMK A01 T00730073  RH  100%=      5-min Rain = 0
KWE2 212159Z 04012KT 07/07 A2993 RMK A01 T00730073  RH  100%=      5-min Rain = 0
KWE2 212200Z 04011KT 07/07 A2993 RMK A01 T00730073  RH  100%=      5-min Rain = 0
KWE2 212201Z 04012KT 07/07 A2993 RMK A01 T00720072  RH  100%=      5-min Rain = 0
KWE2 212202Z 04011KT 07/07 A2993 RMK A01 T00720072  RH  100%=      5-min Rain = 0
KWE2 212203Z 04010KT 07/07 A2993 RMK A01 T00720072  RH  100%=      5-min Rain = 0
KWE2 212204Z 04011KT 07/07 A2992 RMK A01 T00720072  RH  100%=      5-min Rain = 0
KWE2 212205Z 05013KT 07/07 A2992 RMK A01 T00720072  RH  100%=      5-min Rain = 0
KWE2 212206Z 05014KT 07/07 A2992 RMK A01 T00720072  RH  100%=      5-min Rain = 0
KWE2 212207Z 06011KT 07/07 A2992 RMK A01 T00720072  RH  100%=      5-min Rain = 0
KWE2 212208Z 07011KT 07/07 A2992 RMK A01 T00720072  RH  100%=      5-min Rain = 0
KWE2 212209Z 07011KT 07/07 A2992 RMK A01 T00710071  RH  100%=      5-min Rain = 0
KWE2 212210Z 06009KT 07/07 A2992 RMK A01 T00710071  RH  100%=      5-min Rain = 0
KWE2 212211Z 06010KT 07/07 A2992 RMK A01 T00710071  RH  100%=      5-min Rain = 0
KWE2 212212Z 05012KT 07/07 A2992 RMK A01 T00710071  RH  100%=      5-min Rain = 0
KWE2 212213Z 06010KT 07/07 A2993 RMK A01 T00710071  RH  100%=      5-min Rain = 0
KWE2 212214Z 05011KT 07/07 A2992 RMK A01 T00720072  RH  100%=      5-min Rain = 0
KWE2 212215Z 06011G16KT 07/07 A2993 RMK A01 T00720072  RH  100%=      5-min Rain = 0
KWE2 212216Z 06011KT 07/07 A2993 RMK A01 T00720072  RH  100%=      5-min Rain = 0
KWE2 212217Z 06010KT 07/07 A2993 RMK A01 T00720072  RH  100%=      5-min Rain = 0
KWE2 212218Z 05010KT 07/07 A2993 RMK A01 T00720072  RH  100%=      5-min Rain = 0
KWE2 212219Z 05010KT 07/07 A2993 RMK A01 T00720072  RH  100%=      5-min Rain = 0
KWE2 212220Z 05009KT 07/07 A2993 RMK A01 T00710071  RH  100%=      5-min Rain = 0
KWE2 212221Z 05010KT 07/07 A2993 RMK A01 T00710071  RH  100%=      5-min Rain = 0
KWE2 212222Z 05010KT 07/07 A2993 RMK A01 T00710071  RH  100%=      5-min Rain = 0
KWE2 212223Z 05009KT 07/07 A2993 RMK A01 T00710071  RH  100%=      5-min Rain = 0
KWE2 212224Z 05009KT 07/07 A2994 RMK A01 T00710071  RH  100%=      5-min Rain = 0
KWE2 212225Z 05012KT 07/07 A2994 RMK A01 T00710071  RH  100%=      5-min Rain = 0
KWE2 212226Z 05010KT 07/07 A2994 RMK A01 T00710071  RH  100%=      5-min Rain = 0
KWE2 212227Z 06009KT 07/07 A2994 RMK A01 T00710071  RH  100%=      5-min Rain = 0
KWE2 212228Z 05010KT 07/07 A2994 RMK A01 T00720072  RH  100%=      5-min Rain = 0
KWE2 212229Z 05012KT 07/07 A2994 RMK A01 T00710071  RH  100%=      5-min Rain = 0
KWE2 212230Z 06010KT 07/07 A2994 RMK A01 T00710071  RH  100%=      5-min Rain = 0
KWE2 212231Z 05011KT 07/07 A2994 RMK A01 T00710071  RH  100%=      5-min Rain = 0
KWE2 212232Z 06010KT 07/07 A2994 RMK A01 T00710071  RH  100%=      5-min Rain = 0
KWE2 212233Z 06009KT 07/07 A2994 RMK A01 T00710071  RH  100%=      5-min Rain = 0
KWE2 212234Z 06009KT 07/07 A2994 RMK A01 T00710071  RH  100%=      5-min Rain = 0
KWE2 212235Z 06009KT 07/07 A2994 RMK A01 T00710071  RH  100%=      5-min Rain = 0
KWE2 212236Z 06008KT 07/07 A2994 RMK A01 T00710071  RH  100%=      5-min Rain = 0
KWE2 212237Z 06010KT 07/07 A2994 RMK A01 T00710071  RH  100%=      5-min Rain = 0
KWE2 212238Z 06011KT 07/07 A2994 RMK A01 T00710071  RH  100%=      5-min Rain = 0
KWE2 212239Z 07010KT 07/07 A2994 RMK A01 T00700070  RH  100%=      5-min Rain = 0
KWE2 212240Z 06011KT 07/07 A2994 RMK A01 T00700070  RH  100%=      5-min Rain = 0
KWE2 212241Z 06010KT 07/07 A2994 RMK A01 T00700070  RH  100%=      5-min Rain = 0
KWE2 212242Z 05007KT 07/07 A2994 RMK A01 T00700070  RH  100%=      5-min Rain = 0
KWE2 212243Z 06011KT 07/07 A2994 RMK A01 T00700070  RH  100%=      5-min Rain = 0
KWE2 212244Z 06011KT 07/07 A2994 RMK A01 T00700070  RH  100%=      5-min Rain = 0
KWE2 212245Z 06009KT 07/07 A2994 RMK A01 T00700070  RH  100%=      5-min Rain = 0
KWE2 212246Z 05006KT 07/07 A2994 RMK A01 T00700070  RH  100%=      5-min Rain = 0
KWE2 212247Z 06007KT 07/07 A2994 RMK A01 T00700070  RH  100%=      5-min Rain = 0
KWE2 212248Z 06007KT 07/07 A2994 RMK A01 T00710071  RH  100%=      5-min Rain = 0
KWE2 212249Z 05010KT 07/07 A2994 RMK A01 T00710071  RH  100%=      5-min Rain = 0
KWE2 212250Z 06009KT 07/07 A2994 RMK A01 T00710071  RH  100%=      5-min Rain = 0
KWE2 212251Z 06007KT 07/07 A2994 RMK A01 T00700070  RH  100%=      5-min Rain = 0
KWE2 212252Z 07011KT 07/07 A2994 RMK A01 T00710071  RH  100%=      5-min Rain = 0
KWE2 212253Z 07010KT 07/07 A2994 RMK A01 T00700070  RH  100%=      5-min Rain = 0
KWE2 212254Z 06009KT 07/07 A2994 RMK A01 T00700070  RH  100%=      5-min Rain = 0
KWE2 212255Z 06010KT 07/07 A2994 RMK A01 T00700070  RH  100%=      5-min Rain = 0
KWE2 212256Z 06009KT 07/07 A2994 RMK A01 T00700070  RH  100%=      5-min Rain = 0
KWE2 212257Z 06009KT 07/07 A2995 RMK A01 T00700070  RH  100%=      5-min Rain = 0
KWE2 212258Z 07009KT 07/07 A2995 RMK A01 T00690070  RH  100%=      5-min Rain = 0
KWE2 212259Z 07008KT 07/07 A2995 RMK A01 T00690069  RH  100%=      5-min Rain = 0
KWE2 212300Z 06009KT 07/07 A2995 RMK A01 T00690069  RH  100%=      5-min Rain = 0
KWE2 212301Z 07009KT 07/07 A2995 RMK A01 T00700070  RH  100%=      5-min Rain = 0
KWE2 212302Z 06010KT 07/07 A2995 RMK A01 T00690069  RH  100%=      5-min Rain = 0
KWE2 212303Z 06011KT 07/07 A2995 RMK A01 T00700070  RH  100%=      5-min Rain = 0
KWE2 212304Z 06009KT 07/07 A2995 RMK A01 T00690069  RH  100%=      5-min Rain = 0
KWE2 212305Z 05009KT 07/07 A2995 RMK A01 T00690069  RH  100%=      5-min Rain = 0
KWE2 212306Z 06009KT 07/07 A2995 RMK A01 T00690070  RH  100%=      5-min Rain = 0
KWE2 212307Z 06009KT 07/07 A2995 RMK A01 T00700070  RH  100%=      5-min Rain = 0
KWE2 212308Z 06009KT 07/07 A2995 RMK A01 T00690069  RH  100%=      5-min Rain = 0
KWE2 212309Z 06010KT 07/07 A2995 RMK A01 T00690069  RH  100%=      5-min Rain = 0
KWE2 212310Z 06009KT 07/07 A2995 RMK A01 T00690069  RH  100%=      5-min Rain = 0
KWE2 212311Z 06008G13KT 07/07 A2995 RMK A01 T00690069  RH  100%=      5-min Rain = 0
KWE2 212312Z 06007KT 07/07 A2995 RMK A01 T00690069  RH  100%=      5-min Rain = 0
KWE2 212313Z 05008KT 07/07 A2995 RMK A01 T00690069  RH  100%=      5-min Rain = 0
KWE2 212314Z 06011KT 07/07 A2995 RMK A01 T00690069  RH  100%=      5-min Rain = 0
KWE2 212315Z 06010KT 07/07 A2995 RMK A01 T00700070  RH  100%=      5-min Rain = 0
KWE2 212316Z 05009KT 07/07 A2996 RMK A01 T00690069  RH  100%=      5-min Rain = 0
KWE2 212317Z 05012KT 07/07 A2996 RMK A01 T00700070  RH  100%=      5-min Rain = 0
KWE2 212318Z 05009KT 07/07 A2996 RMK A01 T00700070  RH  100%=      5-min Rain = 0
KWE2 212319Z 05010KT 07/07 A2996 RMK A01 T00700070  RH  100%=      5-min Rain = 0
KWE2 212320Z 06010KT 07/07 A2996 RMK A01 T00690069  RH  100%=      5-min Rain = 0
KWE2 212321Z 06008KT 07/07 A2996 RMK A01 T00690069  RH  100%=      5-min Rain = 0
KWE2 212322Z 06010KT 07/07 A2995 RMK A01 T00690070  RH  100%=      5-min Rain = 0
KWE2 212323Z 06011KT 07/07 A2995 RMK A01 T00690069  RH  100%=      5-min Rain = 0
KWE2 212324Z 06008KT 07/07 A2995 RMK A01 T00690069  RH  100%=      5-min Rain = 0
KWE2 212325Z 06009KT 07/07 A2995 RMK A01 T00690069  RH  100%=      5-min Rain = 0
KWE2 212326Z 06010KT 07/07 A2995 RMK A01 T00690069  RH  100%=      5-min Rain = 0
KWE2 212327Z 06009KT 07/07 A2995 RMK A01 T00690069  RH  100%=      5-min Rain = 0
KWE2 212328Z 05010KT 07/07 A2995 RMK A01 T00690069  RH  100%=      5-min Rain = 0
KWE2 212329Z 05011KT 07/07 A2995 RMK A01 T00690069  RH  100%=      5-min Rain = 0
KWE2 212330Z 05010KT 07/07 A2995 RMK A01 T00680069  RH  100%=      5-min Rain = 0
KWE2 212331Z 05009KT 07/07 A2996 RMK A01 T00690069  RH  100%=      5-min Rain = 0
KWE2 212332Z 05009KT 07/07 A2996 RMK A01 T00690069  RH  100%=      5-min Rain = 0
KWE2 212333Z 05007KT 07/07 A2996 RMK A01 T00690069  RH  100%=      5-min Rain = 0
KWE2 212334Z 05007KT 07/07 A2996 RMK A01 T00690070  RH  100%=      5-min Rain = 0
KWE2 212335Z 05009KT 07/07 A2996 RMK A01 T00700070  RH  100%=      5-min Rain = 0
KWE2 212336Z 05008KT 07/07 A2996 RMK A01 T00690070  RH  100%=      5-min Rain = 0
KWE2 212337Z 05008KT 07/07 A2996 RMK A01 T00690069  RH  100%=      5-min Rain = 0
KWE2 212338Z 06007KT 07/07 A2996 RMK A01 T00700070  RH  100%=      5-min Rain = 0
KWE2 212339Z 06007KT 07/07 A2996 RMK A01 T00700070  RH  100%=      5-min Rain = 0
KWE2 212340Z 06008KT 07/07 A2996 RMK A01 T00690069  RH  100%=      5-min Rain = 0
KWE2 212341Z 07008KT 07/07 A2996 RMK A01 T00690070  RH  100%=      5-min Rain = 0
KWE2 212342Z 06009KT 07/07 A2996 RMK A01 T00690069  RH  100%=      5-min Rain = 0
KWE2 212343Z 06009KT 07/07 A2996 RMK A01 T00700070  RH  100%=      5-min Rain = 0
KWE2 212344Z 06008KT 07/07 A2996 RMK A01 T00700070  RH  100%=      5-min Rain = 0
KWE2 212345Z 06009G14KT 07/07 A2996 RMK A01 T00700070  RH  100%=      5-min Rain = 0
KWE2 212346Z 05010KT 07/07 A2996 RMK A01 T00700070  RH  100%=      5-min Rain = 0
KWE2 212347Z 06009KT 07/07 A2996 RMK A01 T00700070  RH  100%=      5-min Rain = 0
KWE2 212348Z 05010KT 07/07 A2996 RMK A01 T00690069  RH  100%=      5-min Rain = 0
KWE2 212349Z 05011KT 07/07 A2996 RMK A01 T00690069  RH  100%=      5-min Rain = 0
KWE2 212350Z 05009KT 07/07 A2996 RMK A01 T00690069  RH  100%=      5-min Rain = 0
KWE2 212351Z 06010KT 07/07 A2996 RMK A01 T00690069  RH  100%=      5-min Rain = 0
KWE2 212352Z 05007KT 07/07 A2996 RMK A01 T00690069  RH  100%=      5-min Rain = 0
KWE2 212353Z 04011KT 07/07 A2996 RMK A01 T00690069  RH  100%=      5-min Rain = 0
KWE2 212354Z 05010KT 07/07 A2996 RMK A01 T00690069  RH  100%=      5-min Rain = 0
KWE2 212355Z 05008KT 07/07 A2996 RMK A01 T00690069  RH  100%=      5-min Rain = 0
KWE2 212356Z 04008KT 07/07 A2996 RMK A01 T00690069  RH  100%=      5-min Rain = 0
KWE2 212357Z 05008KT 07/07 A2996 RMK A01 T00690069  RH  100%=      5-min Rain = 0
KWE2 212358Z 05008KT 07/07 A2997 RMK A01 T00690069  RH  100%=      5-min Rain = 0
KWE2 212359Z 04007KT 07/07 A2997 RMK A01 T00690069  RH  100%=      5-min Rain = 0
KWE2 220000Z 05009KT 07/07 A2997 RMK A01 T00690069  RH  100%=      5-min Rain = 0
KWE2 220001Z 05010KT 07/07 A2997 RMK A01 T00690069  RH  100%=      5-min Rain = 0
KWE2 220002Z 04009KT 07/07 A2997 RMK A01 T00690069  RH  100%=      5-min Rain = 0
KWE2 220003Z 04009KT 07/07 A2997 RMK A01 T00690069  RH  100%=      5-min Rain = 0
KWE2 220004Z 05008KT 07/07 A2997 RMK A01 T00690069  RH  100%=      5-min Rain = 0
KWE2 220005Z 05007KT 07/07 A2997 RMK A01 T00690069  RH  100%=      5-min Rain = 0
KWE2 220006Z 05009KT 07/07 A2997 RMK A01 T00690069  RH  100%=      5-min Rain = 0
KWE2 220007Z 06010KT 07/07 A2997 RMK A01 T00680068  RH  100%=      5-min Rain = 0
KWE2 220008Z 05010KT 07/07 A2997 RMK A01 T00690069  RH  100%=      5-min Rain = 0
KWE2 220009Z 05008KT 07/07 A2997 RMK A01 T00690069  RH  100%=      5-min Rain = 0
KWE2 220010Z 06007KT 07/07 A2997 RMK A01 T00690069  RH  100%=      5-min Rain = 0
KWE2 220011Z 05008KT 07/07 A2997 RMK A01 T00690069  RH  100%=      5-min Rain = 0
KWE2 220012Z 05007KT 07/07 A2997 RMK A01 T00690069  RH  100%=      5-min Rain = 0
KWE2 220013Z 05007KT 07/07 A2997 RMK A01 T00690069  RH  100%=      5-min Rain = 0
KWE2 220014Z 06009KT 07/07 A2997 RMK A01 T00690069  RH  100%=      5-min Rain = 0
KWE2 220015Z 05009KT 07/07 A2997 RMK A01 T00690069  RH  100%=      5-min Rain = 0
KWE2 220016Z 05006KT 07/07 A2997 RMK A01 T00690069  RH  100%=      5-min Rain = 0
KWE2 220017Z 06007KT 07/07 A2997 RMK A01 T00690069  RH  100%=      5-min Rain = 0
KWE2 220018Z 07009KT 07/07 A2997 RMK A01 T00690069  RH  100%=      5-min Rain = 0
KWE2 220019Z 06008KT 07/07 A2997 RMK A01 T00690069  RH  100%=      5-min Rain = 0
KWE2 220020Z 05010KT 07/07 A2997 RMK A01 T00690069  RH  100%=      5-min Rain = 0
KWE2 220021Z 06009KT 07/07 A2997 RMK A01 T00690069  RH  100%=      5-min Rain = 0
KWE2 220022Z 06007KT 07/07 A2997 RMK A01 T00680068  RH  100%=      5-min Rain = 0
KWE2 220023Z 07008KT 07/07 A2997 RMK A01 T00680068  RH  100%=      5-min Rain = 0
KWE2 220024Z 07008KT 07/07 A2997 RMK A01 T00680068  RH  100%=      5-min Rain = 0
KWE2 220025Z 07008KT 07/07 A2997 RMK A01 T00680068  RH  100%=      5-min Rain = 0
KWE2 220026Z 07007KT 07/07 A2997 RMK A01 T00680068  RH  100%=      5-min Rain = 0
KWE2 220027Z 06010KT 07/07 A2997 RMK A01 T00690069  RH  100%=      5-min Rain = 0
KWE2 220028Z 06010KT 07/07 A2997 RMK A01 T00680068  RH  100%=      5-min Rain = 0
KWE2 220029Z 06008KT 07/07 A2997 RMK A01 T00670067  RH  100%=      5-min Rain = 0
KWE2 220030Z 06009KT 07/07 A2997 RMK A01 T00680068  RH  100%=      5-min Rain = 0
KWE2 220031Z 07008KT 07/07 A2997 RMK A01 T00680068  RH  100%=      5-min Rain = 0
KWE2 220032Z 07010KT 07/07 A2997 RMK A01 T00680068  RH  100%=      5-min Rain = 0
KWE2 220033Z 07012KT 07/07 A2997 RMK A01 T00680068  RH  100%=      5-min Rain = 0
KWE2 220034Z 06010KT 07/07 A2997 RMK A01 T00670067  RH  100%=      5-min Rain = 0
KWE2 220035Z 07010KT 07/07 A2997 RMK A01 T00670067  RH  100%=      5-min Rain = 0
KWE2 220036Z 07009KT 07/07 A2997 RMK A01 T00670067  RH  100%=      5-min Rain = 0
KWE2 220037Z 06010KT 07/07 A2997 RMK A01 T00670067  RH  100%=      5-min Rain = 0
KWE2 220038Z 06010KT 07/07 A2997 RMK A01 T00670067  RH  100%=      5-min Rain = 0
KWE2 220039Z 06011KT 07/07 A2997 RMK A01 T00670067  RH  100%=      5-min Rain = 0
KWE2 220040Z 06009KT 07/07 A2997 RMK A01 T00660066  RH  100%=      5-min Rain = 0
KWE2 220041Z 07012KT 07/07 A2997 RMK A01 T00660067  RH  100%=      5-min Rain = 0
KWE2 220042Z 07010KT 07/07 A2997 RMK A01 T00660066  RH  100%=      5-min Rain = 0
KWE2 220043Z 07010KT 07/07 A2997 RMK A01 T00660066  RH  100%=      5-min Rain = 0
KWE2 220044Z 07011KT 07/07 A2997 RMK A01 T00660066  RH  100%=      5-min Rain = 0
KWE2 220045Z 06011KT 07/07 A2997 RMK A01 T00650065  RH  100%=      5-min Rain = 0
KWE2 220046Z 07009KT 07/07 A2997 RMK A01 T00650065  RH  100%=      5-min Rain = 0
KWE2 220047Z 07007KT 07/07 A2997 RMK A01 T00650066  RH  100%=      5-min Rain = 0
KWE2 220048Z 08008G13KT 07/07 A2997 RMK A01 T00660066  RH  100%=      5-min Rain = 0
KWE2 220049Z 08014KT 07/07 A2997 RMK A01 T00660066  RH  100%=      5-min Rain = 0
KWE2 220050Z 08008KT 07/07 A2997 RMK A01 T00660066  RH  100%=      5-min Rain = 0
KWE2 220051Z 08010G15KT 07/07 A2997 RMK A01 T00660066  RH  100%=      5-min Rain = 0
KWE2 220052Z 07009KT 07/07 A2997 RMK A01 T00660066  RH  100%=      5-min Rain = 0
KWE2 220053Z 07009KT 07/07 A2997 RMK A01 T00660066  RH  100%=      5-min Rain = 0
KWE2 220054Z 07011KT 07/07 A2997 RMK A01 T00650065  RH  100%=      5-min Rain = 0
KWE2 220055Z 07012KT 06/06 A2997 RMK A01 T00640064  RH  100%=      5-min Rain = 0
KWE2 220056Z 08010KT 07/07 A2997 RMK A01 T00650065  RH  100%=      5-min Rain = 0
KWE2 220057Z 08012KT 07/07 A2997 RMK A01 T00650065  RH  100%=      5-min Rain = 0
KWE2 220058Z 08011KT 07/07 A2998 RMK A01 T00650065  RH  100%=      5-min Rain = 0
KWE2 220059Z 07010G15KT 06/07 A2997 RMK A01 T00640065  RH  100%=      5-min Rain = 0
KWE2 220100Z 07010KT 07/07 A2998 RMK A01 T00650065  RH  100%=      5-min Rain = 0
KWE2 220101Z 07013KT 06/06 A2998 RMK A01 T00640064  RH  100%=      5-min Rain = 0
KWE2 220102Z 07010KT 06/06 A2998 RMK A01 T00640064  RH  100%=      5-min Rain = 0
KWE2 220103Z 07011KT 06/06 A2998 RMK A01 T00640064  RH  100%=      5-min Rain = 0
KWE2 220104Z 06011G17KT 06/06 A2998 RMK A01 T00630063  RH  100%=      5-min Rain = 0
KWE2 220105Z 06013KT 06/06 A2998 RMK A01 T00630063  RH  100%=      5-min Rain = 0
KWE2 220106Z 06012KT 06/06 A2998 RMK A01 T00630063  RH  100%=      5-min Rain = 0
KWE2 220107Z 06011KT 06/06 A2998 RMK A01 T00630063  RH  100%=      5-min Rain = 0
KWE2 220108Z 06011KT 06/06 A2999 RMK A01 T00630063  RH  100%=      5-min Rain = 0
KWE2 220109Z 06011KT 06/06 A2999 RMK A01 T00630063  RH  100%=      5-min Rain = 0
KWE2 220110Z 06012KT 06/06 A2999 RMK A01 T00630063  RH  100%=      5-min Rain = 0
KWE2 220111Z 06008KT 06/06 A2999 RMK A01 T00630063  RH  100%=      5-min Rain = 0
KWE2 220112Z 06007KT 06/06 A2999 RMK A01 T00630063  RH  100%=      5-min Rain = 0
KWE2 220113Z 05010KT 06/06 A2999 RMK A01 T00630063  RH  100%=      5-min Rain = 0
KWE2 220114Z 05012KT 06/06 A2999 RMK A01 T00630063  RH  100%=      5-min Rain = 0
KWE2 220115Z 05012KT 06/06 A2999 RMK A01 T00630063  RH  100%=      5-min Rain = 0
KWE2 220116Z 05012KT 06/06 A2999 RMK A01 T00630063  RH  100%=      5-min Rain = 0
KWE2 220117Z 05012KT 06/06 A30 RMK A01 T00620062  RH  100%=      5-min Rain = 0
KWE2 220118Z 06012KT 06/06 A30 RMK A01 T00620062  RH  100%=      5-min Rain = 0
KWE2 220119Z 06011KT 06/06 A30 RMK A01 T00620062  RH  100%=      5-min Rain = 0
KWE2 220120Z 06011KT 06/06 A30 RMK A01 T00620062  RH  100%=      5-min Rain = 0
KWE2 220121Z 06012KT 06/06 A30 RMK A01 T00620062  RH  100%=      5-min Rain = 0
KWE2 220122Z 06012KT 06/06 A30 RMK A01 T00620062  RH  100%=      5-min Rain = 0
KWE2 220123Z 06010G15KT 06/06 A30 RMK A01 T00610061  RH  100%=      5-min Rain = 0
KWE2 220124Z 06011KT 06/06 A30 RMK A01 T00610061  RH  100%=      5-min Rain = 0
KWE2 220125Z 06007G12KT 06/06 A30 RMK A01 T00610061  RH  100%=      5-min Rain = 0
KWE2 220126Z 06010KT 06/06 A30 RMK A01 T00610061  RH  100%=      5-min Rain = 0
KWE2 220127Z 06010KT 06/06 A30 RMK A01 T00610061  RH  100%=      5-min Rain = 0
KWE2 220128Z 06009KT 06/06 A30 RMK A01 T00610061  RH  100%=      5-min Rain = 0
KWE2 220129Z 06008KT 06/06 A30 RMK A01 T00610061  RH  100%=      5-min Rain = 0
KWE2 220130Z 06009KT 06/06 A30 RMK A01 T00610061  RH  100%=      5-min Rain = 0
KWE2 220131Z 05010KT 06/06 A30 RMK A01 T00610061  RH  100%=      5-min Rain = 0
KWE2 220132Z 05010KT 06/06 A30 RMK A01 T00610061  RH  100%=      5-min Rain = 0
KWE2 220133Z 05008KT 06/06 A30 RMK A01 T00610061  RH  100%=      5-min Rain = 0
KWE2 220134Z 05009KT 06/06 A30 RMK A01 T00610061  RH  100%=      5-min Rain = 0
KWE2 220135Z 05010KT 06/06 A30 RMK A01 T00610061  RH  100%=      5-min Rain = 0
KWE2 220136Z 05009KT 06/06 A30 RMK A01 T00610061  RH  100%=      5-min Rain = 0
KWE2 220137Z 05010KT 06/06 A30 RMK A01 T00610061  RH  100%=      5-min Rain = 0
KWE2 220138Z 05010KT 06/06 A30 RMK A01 T00610061  RH  100%=      5-min Rain = 0
KWE2 220139Z 05009KT 06/06 A3001 RMK A01 T00610062  RH  100%=      5-min Rain = 0
KWE2 220140Z 06010KT 06/06 A3001 RMK A01 T00610061  RH  100%=      5-min Rain = 0
KWE2 220141Z 05010KT 06/06 A3001 RMK A01 T00610061  RH  100%=      5-min Rain = 0
KWE2 220142Z 05010KT 06/06 A3001 RMK A01 T00610061  RH  100%=      5-min Rain = 0
KWE2 220143Z 05009KT 06/06 A3001 RMK A01 T00610061  RH  100%=      5-min Rain = 0
KWE2 220144Z 06009KT 06/06 A3001 RMK A01 T00610061  RH  100%=      5-min Rain = 0
KWE2 220145Z 06010KT 06/06 A3001 RMK A01 T00610062  RH  100%=      5-min Rain = 0
KWE2 220146Z 06009KT 06/06 A3001 RMK A01 T00610061  RH  100%=      5-min Rain = 0
KWE2 220147Z 06009KT 06/06 A3001 RMK A01 T00610061  RH  100%=      5-min Rain = 0
KWE2 220148Z 05010KT 06/06 A3001 RMK A01 T00600060  RH  100%=      5-min Rain = 0
KWE2 220149Z 06010KT 06/06 A3001 RMK A01 T00600060  RH  100%=      5-min Rain = 0
KWE2 220150Z 06011KT 06/06 A3001 RMK A01 T00600060  RH  100%=      5-min Rain = 0
KWE2 220151Z 06008KT 06/06 A3001 RMK A01 T00600060  RH  100%=      5-min Rain = 0
KWE2 220152Z 05011KT 06/06 A3002 RMK A01 T00600060  RH  100%=      5-min Rain = 0
KWE2 220153Z 04009KT 06/06 A3003 RMK A01 T00600060  RH  100%=      5-min Rain = 0
KWE2 220154Z 02010KT 06/06 A3004 RMK A01 T00600060  RH  100%=      5-min Rain = 0
KWE2 220155Z 34013KT 06/06 A3006 RMK A01 T00600060  RH  100%=      5-min Rain = 0
KWE2 220156Z 32015G22KT 06/06 A3008 RMK A01 T00610061  RH  100%=      5-min Rain = 0
KWE2 220157Z 32018KT 06/06 A3009 RMK A01 T00620062  RH  100%=      5-min Rain = 0
KWE2 220158Z 33019KT 06/06 A301 RMK A01 T00620062  RH  100%=      5-min Rain = 0
KWE2 220159Z 33016KT 06/06 A301 RMK A01 T00620062  RH  100%=      5-min Rain = 0
KWE2 220200Z 34013KT 06/06 A3009 RMK A01 T00620062  RH  100%=      5-min Rain = 0
KWE2 220201Z 01012KT 06/06 A3007 RMK A01 T00610061  RH  100%=      5-min Rain = 0
KWE2 220202Z 03011KT 06/06 A3006 RMK A01 T00610061  RH  100%=      5-min Rain = 0
KWE2 220203Z 01011KT 06/06 A3006 RMK A01 T00610061  RH  100%=      5-min Rain = 0
KWE2 220204Z 35012KT 06/06 A3007 RMK A01 T00610061  RH  100%=      5-min Rain = 0
KWE2 220205Z 34014KT 06/06 A3008 RMK A01 T00610061  RH  100%=      5-min Rain = 0
KWE2 220206Z 33014KT 06/06 A3009 RMK A01 T00610061  RH  100%=      5-min Rain = 0
KWE2 220207Z 34013KT 06/06 A3009 RMK A01 T00610061  RH  100%=      5-min Rain = 0
KWE2 220208Z 34015KT 06/06 A3009 RMK A01 T00620062  RH  100%=      5-min Rain = 0
KWE2 220209Z 35014KT 06/06 A3009 RMK A01 T00620062  RH  100%=      5-min Rain = 0
KWE2 220210Z 01011KT 06/06 A3008 RMK A01 T00610061  RH  100%=      5-min Rain = 0
KWE2 220211Z 02011KT 06/06 A3007 RMK A01 T00610061  RH  100%=      5-min Rain = 0
KWE2 220212Z 02012KT 06/06 A3007 RMK A01 T00610061  RH  100%=      5-min Rain = 0
KWE2 220213Z 02010KT 06/06 A3008 RMK A01 T00610061  RH  100%=      5-min Rain = 0
KWE2 220214Z 00012KT 06/06 A3008 RMK A01 T00610061  RH  100%=      5-min Rain = 0
KWE2 220215Z 36012KT 06/06 A3008 RMK A01 T00610061  RH  100%=      5-min Rain = 0
KWE2 220216Z 35011KT 06/06 A3008 RMK A01 T00620062  RH  100%=      5-min Rain = 0
KWE2 220217Z 00011KT 06/06 A3008 RMK A01 T00620062  RH  100%=      5-min Rain = 0
KWE2 220218Z 36013KT 06/06 A3008 RMK A01 T00620062  RH  100%=      5-min Rain = 0
KWE2 220219Z 01011G16KT 06/06 A3008 RMK A01 T00620062  RH  100%=      5-min Rain = 0
KWE2 220220Z 01012KT 06/06 A3007 RMK A01 T00620062  RH  100%=      5-min Rain = 0
KWE2 220221Z 01011KT 06/06 A3007 RMK A01 T00620062  RH  100%=      5-min Rain = 0
KWE2 220222Z 00012KT 06/06 A3007 RMK A01 T00620062  RH  100%=      5-min Rain = 0
KWE2 220223Z 35014KT 06/06 A3008 RMK A01 T00620062  RH  100%=      5-min Rain = 0
KWE2 220224Z 35013KT 06/06 A3008 RMK A01 T00620062  RH  100%=      5-min Rain = 0
KWE2 220225Z 35011KT 06/06 A3008 RMK A01 T00630063  RH  100%=      5-min Rain = 0
KWE2 220226Z 35012KT 06/06 A3008 RMK A01 T00630063  RH  100%=      5-min Rain = 0
KWE2 220227Z 00013KT 06/06 A3008 RMK A01 T00630063  RH  100%=      5-min Rain = 0
KWE2 220228Z 01010KT 06/06 A3008 RMK A01 T00630063  RH  100%=      5-min Rain = 0
KWE2 220229Z 01013KT 06/06 A3007 RMK A01 T00630063  RH  100%=      5-min Rain = 0
KWE2 220230Z 01014KT 06/06 A3007 RMK A01 T00630063  RH  100%=      5-min Rain = 0
KWE2 220231Z 01012KT 06/06 A3007 RMK A01 T00630063  RH  100%=      5-min Rain = 0
KWE2 220232Z 01011KT 06/06 A3008 RMK A01 T00630063  RH  100%=      5-min Rain = 0
KWE2 220233Z 01011KT 06/06 A3008 RMK A01 T00630063  RH  100%=      5-min Rain = 0
KWE2 220234Z 01011KT 06/06 A3008 RMK A01 T00620063  RH  100%=      5-min Rain = 0
KWE2 220235Z 02014KT 06/06 A3008 RMK A01 T00620063  RH  100%=      5-min Rain = 0
KWE2 220236Z 01013KT 06/06 A3007 RMK A01 T00620062  RH  100%=      5-min Rain = 0
KWE2 220237Z 02013KT 06/06 A3007 RMK A01 T00620062  RH  100%=      5-min Rain = 0
KWE2 220238Z 01012KT 06/06 A3007 RMK A01 T00620062  RH  100%=      5-min Rain = 0
KWE2 220239Z 01011KT 06/06 A3008 RMK A01 T00620062  RH  100%=      5-min Rain = 0
KWE2 220240Z 01013KT 06/06 A3008 RMK A01 T00630063  RH  100%=      5-min Rain = 0
KWE2 220241Z 01012KT 06/06 A3008 RMK A01 T00630063  RH  100%=      5-min Rain = 0
KWE2 220242Z 01010G15KT 06/06 A3008 RMK A01 T00630063  RH  100%=      5-min Rain = 0
KWE2 220243Z 02012KT 06/06 A3008 RMK A01 T00630063  RH  100%=      5-min Rain = 0
KWE2 220244Z 02011KT 06/06 A3008 RMK A01 T00630063  RH  100%=      5-min Rain = 0
KWE2 220245Z 02012KT 06/06 A3008 RMK A01 T00630063  RH  100%=      5-min Rain = 0
KWE2 220246Z 02014KT 06/06 A3008 RMK A01 T00630063  RH  100%=      5-min Rain = 0
KWE2 220247Z 02012KT 06/06 A3008 RMK A01 T00630063  RH  100%=      5-min Rain = 0
KWE2 220248Z 02011KT 06/06 A3008 RMK A01 T00630063  RH  100%=      5-min Rain = 0
KWE2 220249Z 02011KT 06/06 A3008 RMK A01 T00630063  RH  100%=      5-min Rain = 0
KWE2 220250Z 02012KT 06/06 A3008 RMK A01 T00630063  RH  100%=      5-min Rain = 0
KWE2 220251Z 01010KT 06/06 A3008 RMK A01 T00630063  RH  100%=      5-min Rain = 0
KWE2 220252Z 00009KT 06/06 A3008 RMK A01 T00630063  RH  100%=      5-min Rain = 0
KWE2 220253Z 01010KT 06/06 A3009 RMK A01 T00630063  RH  100%=      5-min Rain = 0
KWE2 220254Z 01009KT 06/06 A3009 RMK A01 T00630063  RH  100%=      5-min Rain = 0
KWE2 220255Z 02010KT 06/06 A3009 RMK A01 T00630063  RH  100%=      5-min Rain = 0
KWE2 220256Z 01011KT 06/06 A3008 RMK A01 T00630063  RH  100%=      5-min Rain = 0
KWE2 220257Z 01011KT 06/06 A3008 RMK A01 T00630063  RH  100%=      5-min Rain = 0
KWE2 220258Z 01011KT 06/06 A3009 RMK A01 T00630063  RH  100%=      5-min Rain = 0
KWE2 220259Z 01009KT 06/06 A3009 RMK A01 T00630063  RH  100%=      5-min Rain = 0
KWE2 220300Z 01011KT 06/06 A3009 RMK A01 T00630064  RH  100%=      5-min Rain = 0
KWE2 220301Z 01012KT 06/06 A3009 RMK A01 T00630064  RH  100%=      5-min Rain = 0
KWE2 220302Z 01010G15KT 06/06 A3009 RMK A01 T00640064  RH  100%=      5-min Rain = 0
KWE2 220303Z 01011KT 06/06 A3009 RMK A01 T00630063  RH  100%=      5-min Rain = 0
KWE2 220304Z 00011KT 06/06 A3009 RMK A01 T00640064  RH  100%=      5-min Rain = 0
KWE2 220305Z 00010KT 06/06 A3009 RMK A01 T00640064  RH  100%=      5-min Rain = 0
KWE2 220306Z 00010KT 06/06 A3009 RMK A01 T00640064  RH  100%=      5-min Rain = 0
KWE2 220307Z 01011KT 06/06 A3009 RMK A01 T00640064  RH  100%=      5-min Rain = 0
KWE2 220308Z 00010KT 06/06 A3009 RMK A01 T00640064  RH  100%=      5-min Rain = 0
KWE2 220309Z 01011KT 06/06 A3009 RMK A01 T00640064  RH  100%=      5-min Rain = 0
KWE2 220310Z 00011KT 06/06 A3009 RMK A01 T00640064  RH  100%=      5-min Rain = 0
KWE2 220311Z 00010KT 06/06 A3009 RMK A01 T00640064  RH  100%=      5-min Rain = 0
KWE2 220312Z 36011KT 06/06 A301 RMK A01 T00640064  RH  100%=      5-min Rain = 0
KWE2 220313Z 36012KT 06/06 A301 RMK A01 T00640064  RH  100%=      5-min Rain = 0
KWE2 220314Z 35014KT 06/06 A301 RMK A01 T00640064  RH  100%=      5-min Rain = 0
KWE2 220315Z 00014KT 06/06 A301 RMK A01 T00640064  RH  100%=      5-min Rain = 0
KWE2 220316Z 36011KT 06/06 A301 RMK A01 T00640064  RH  100%=      5-min Rain = 0
KWE2 220317Z 01013KT 06/06 A3009 RMK A01 T00640064  RH  100%=      5-min Rain = 0
KWE2 220318Z 00015KT 06/06 A3009 RMK A01 T00640064  RH  100%=      5-min Rain = 0
KWE2 220319Z 01014KT 06/06 A3009 RMK A01 T00640064  RH  100%=      5-min Rain = 0
KWE2 220320Z 01013KT 06/06 A3009 RMK A01 T00640064  RH  100%=      5-min Rain = 0
KWE2 220321Z 01016KT 06/06 A3009 RMK A01 T00640064  RH  100%=      5-min Rain = 0
KWE2 220322Z 01015KT 06/06 A3008 RMK A01 T00630064  RH  100%=      5-min Rain = 0
KWE2 220323Z 01015KT 06/06 A3008 RMK A01 T00630064  RH  100%=      5-min Rain = 0
KWE2 220324Z 01015KT 06/06 A3008 RMK A01 T00640064  RH  100%=      5-min Rain = 0
KWE2 220325Z 01016KT 06/06 A3008 RMK A01 T00630063  RH  100%=      5-min Rain = 0
KWE2 220326Z 01015KT 06/06 A3008 RMK A01 T00630063  RH  100%=      5-min Rain = 0
KWE2 220327Z 01016KT 06/06 A3008 RMK A01 T00630063  RH  100%=      5-min Rain = 0
KWE2 220328Z 01013KT 06/06 A3008 RMK A01 T00630063  RH  100%=      5-min Rain = 0
KWE2 220329Z 01013KT 06/06 A3008 RMK A01 T00630063  RH  100%=      5-min Rain = 0
KWE2 220330Z 01014KT 06/06 A3008 RMK A01 T00630063  RH  100%=      5-min Rain = 0
KWE2 220331Z 01012KT 06/06 A3008 RMK A01 T00630063  RH  100%=      5-min Rain = 0
KWE2 220332Z 02011KT 06/06 A3008 RMK A01 T00630063  RH  100%=      5-min Rain = 0
KWE2 220333Z 02013KT 06/06 A3008 RMK A01 T00620063  RH  100%=      5-min Rain = 0
KWE2 220334Z 02012KT 06/06 A3009 RMK A01 T00620062  RH  100%=      5-min Rain = 0
KWE2 220335Z 01012KT 06/06 A3009 RMK A01 T00620062  RH  100%=      5-min Rain = 0
KWE2 220336Z 01011KT 06/06 A3009 RMK A01 T00620062  RH  100%=      5-min Rain = 0
KWE2 220337Z 01010KT 06/06 A3009 RMK A01 T00620062  RH  100%=      5-min Rain = 0
KWE2 220338Z 01012KT 06/06 A3009 RMK A01 T00620062  RH  100%=      5-min Rain = 0
KWE2 220339Z 02014KT 06/06 A3009 RMK A01 T00620062  RH  100%=      5-min Rain = 0
KWE2 220340Z 02012KT 06/06 A3009 RMK A01 T00620062  RH  100%=      5-min Rain = 0
KWE2 220341Z 01012KT 06/06 A3009 RMK A01 T00620062  RH  100%=      5-min Rain = 0
KWE2 220342Z 02012KT 06/06 A3009 RMK A01 T00620062  RH  100%=      5-min Rain = 0
KWE2 220343Z 01013KT 06/06 A3009 RMK A01 T00620062  RH  100%=      5-min Rain = 0
KWE2 220344Z 01012KT 06/06 A3009 RMK A01 T00620062  RH  100%=      5-min Rain = 0
KWE2 220345Z 02014KT 06/06 A3009 RMK A01 T00620062  RH  100%=      5-min Rain = 0
KWE2 220346Z 02014KT 06/06 A3009 RMK A01 T00620062  RH  100%=      5-min Rain = 0
KWE2 220347Z 02010KT 06/06 A301 RMK A01 T00620062  RH  100%=      5-min Rain = 0
KWE2 220348Z 02010KT 06/06 A301 RMK A01 T00620062  RH  100%=      5-min Rain = 0
KWE2 220349Z 02011KT 06/06 A301 RMK A01 T00620062  RH  100%=      5-min Rain = 0
KWE2 220350Z 02010KT 06/06 A301 RMK A01 T00620062  RH  100%=      5-min Rain = 0
KWE2 220351Z 02011KT 06/06 A301 RMK A01 T00620062  RH  100%=      5-min Rain = 0
KWE2 220352Z 02012KT 06/06 A301 RMK A01 T00610062  RH  100%=      5-min Rain = 0
KWE2 220353Z 02012KT 06/06 A301 RMK A01 T00620062  RH  100%=      5-min Rain = 0
KWE2 220354Z 02011KT 06/06 A301 RMK A01 T00620062  RH  100%=      5-min Rain = 0
KWE2 220355Z 02011KT 06/06 A301 RMK A01 T00620062  RH  100%=      5-min Rain = 0
KWE2 220356Z 01012KT 06/06 A301 RMK A01 T00620062  RH  100%=      5-min Rain = 0
KWE2 220357Z 01012KT 06/06 A301 RMK A01 T00620062  RH  100%=      5-min Rain = 0
KWE2 220358Z 02011KT 06/06 A301 RMK A01 T00620062  RH  100%=      5-min Rain = 0
KWE2 220359Z 01010KT 06/06 A3011 RMK A01 T00620062  RH  100%=      5-min Rain = 0
KWE2 220400Z 01012KT 06/06 A301 RMK A01 T00620062  RH  100%=      5-min Rain = 0
KWE2 220401Z 01014KT 06/06 A301 RMK A01 T00620062  RH  100%=      5-min Rain = 0.01
KWE2 220402Z 02013KT 06/06 A3011 RMK A01 T00610061  RH  100%=      5-min Rain = 0
KWE2 220403Z 02012KT 06/06 A3011 RMK A01 T00610061  RH  100%=      5-min Rain = 0
KWE2 220404Z 02011KT 06/06 A3011 RMK A01 T00610061  RH  100%=      5-min Rain = 0
KWE2 220405Z 02011KT 06/06 A3011 RMK A01 T00610061  RH  100%=      5-min Rain = 0
KWE2 220406Z 02011KT 06/06 A3011 RMK A01 T00610061  RH  100%=      5-min Rain = 0
KWE2 220407Z 02011KT 06/06 A3012 RMK A01 T00610061  RH  100%=      5-min Rain = 0
KWE2 220408Z 02011KT 06/06 A3012 RMK A01 T00610061  RH  100%=      5-min Rain = 0
KWE2 220409Z 02009KT 06/06 A3012 RMK A01 T00610061  RH  100%=      5-min Rain = 0.01
KWE2 220410Z 02009KT 06/06 A3012 RMK A01 T00610061  RH  100%=      5-min Rain = 0
KWE2 220411Z 02009KT 06/06 A3012 RMK A01 T00610061  RH  100%=      5-min Rain = 0
KWE2 220412Z 02008KT 06/06 A3012 RMK A01 T00610061  RH  100%=      5-min Rain = 0
KWE2 220413Z 02010KT 06/06 A3011 RMK A01 T00610061  RH  100%=      5-min Rain = 0
KWE2 220414Z 02010KT 06/06 A3011 RMK A01 T00610061  RH  100%=      5-min Rain = 0
KWE2 220415Z 02010KT 06/06 A3011 RMK A01 T00600060  RH  100%=      5-min Rain = 0
KWE2 220416Z 02010KT 06/06 A3011 RMK A01 T00600060  RH  100%=      5-min Rain = 0
KWE2 220417Z 02013KT 06/06 A301 RMK A01 T00600060  RH  100%=      5-min Rain = 0
KWE2 220418Z 02013KT 06/06 A301 RMK A01 T00600061  RH  100%=      5-min Rain = 0
KWE2 220419Z 01014KT 06/06 A301 RMK A01 T00600060  RH  100%=      5-min Rain = 0
KWE2 220420Z 02012KT 06/06 A301 RMK A01 T00600060  RH  100%=      5-min Rain = 0
KWE2 220421Z 02015KT 06/06 A3009 RMK A01 T00600060  RH  100%=      5-min Rain = 0
KWE2 220422Z 01013KT 06/06 A3009 RMK A01 T00600060  RH  100%=      5-min Rain = 0
KWE2 220423Z 02013KT 06/06 A3009 RMK A01 T00600060  RH  100%=      5-min Rain = 0
KWE2 220424Z 02011KT 06/06 A3009 RMK A01 T00600060  RH  100%=      5-min Rain = 0
KWE2 220425Z 02014KT 06/06 A3008 RMK A01 T00590059  RH  100%=      5-min Rain = 0
KWE2 220426Z 03013KT 06/06 A3008 RMK A01 T00590059  RH  100%=      5-min Rain = 0
KWE2 220427Z 02013KT 06/06 A3008 RMK A01 T00590059  RH  100%=      5-min Rain = 0
KWE2 220428Z 03013KT 06/06 A3008 RMK A01 T00590059  RH  100%=      5-min Rain = 0
KWE2 220429Z 03011KT 06/06 A3008 RMK A01 T00590059  RH  100%=      5-min Rain = 0
KWE2 220430Z 03010KT 06/06 A3009 RMK A01 T00590059  RH  100%=      5-min Rain = 0
KWE2 220431Z 03010KT 06/06 A3009 RMK A01 T00580058  RH  100%=      5-min Rain = 0
KWE2 220432Z 03008KT 06/06 A3009 RMK A01 T00590059  RH  100%=      5-min Rain = 0
KWE2 220433Z 02009KT 06/06 A301 RMK A01 T00590059  RH  100%=      5-min Rain = 0
KWE2 220434Z 02011KT 06/06 A301 RMK A01 T00590059  RH  100%=      5-min Rain = 0
KWE2 220435Z 02009KT 06/06 A301 RMK A01 T00580059  RH  100%=      5-min Rain = 0
KWE2 220436Z 01009KT 06/06 A301 RMK A01 T00590059  RH  100%=      5-min Rain = 0
KWE2 220437Z 01009KT 06/06 A301 RMK A01 T00590059  RH  100%=      5-min Rain = 0
KWE2 220438Z 01010KT 06/06 A301 RMK A01 T00590059  RH  100%=      5-min Rain = 0
KWE2 220439Z 01009KT 06/06 A301 RMK A01 T00590059  RH  100%=      5-min Rain = 0
KWE2 220440Z 01010KT 06/06 A3011 RMK A01 T00590059  RH  100%=      5-min Rain = 0
KWE2 220441Z 01008KT 06/06 A3011 RMK A01 T00590059  RH  100%=      5-min Rain = 0
KWE2 220442Z 01009KT 06/06 A3011 RMK A01 T00590059  RH  100%=      5-min Rain = 0
KWE2 220443Z 01011KT 06/06 A3011 RMK A01 T00590059  RH  100%=      5-min Rain = 0
KWE2 220444Z 00010KT 06/06 A3011 RMK A01 T00600060  RH  100%=      5-min Rain = 0
KWE2 220445Z 00010KT 06/06 A3011 RMK A01 T00590060  RH  100%=      5-min Rain = 0
KWE2 220446Z 00011KT 06/06 A3011 RMK A01 T00590059  RH  100%=      5-min Rain = 0
KWE2 220447Z 01012KT 06/06 A3011 RMK A01 T00590060  RH  100%=      5-min Rain = 0
KWE2 220448Z 36010KT 06/06 A3011 RMK A01 T00590059  RH  100%=      5-min Rain = 0
KWE2 220449Z 36010KT 06/06 A3011 RMK A01 T00600060  RH  100%=      5-min Rain = 0
KWE2 220450Z 35010KT 06/06 A3011 RMK A01 T00600060  RH  100%=      5-min Rain = 0
KWE2 220451Z 00012KT 06/06 A3011 RMK A01 T00590059  RH  100%=      5-min Rain = 0
KWE2 220452Z 00012KT 06/06 A3011 RMK A01 T00590060  RH  100%=      5-min Rain = 0
KWE2 220453Z 00013KT 06/06 A3011 RMK A01 T00590059  RH  100%=      5-min Rain = 0
KWE2 220454Z 36010KT 06/06 A3011 RMK A01 T00590060  RH  100%=      5-min Rain = 0
KWE2 220455Z 35010KT 06/06 A3012 RMK A01 T00600060  RH  100%=      5-min Rain = 0
KWE2 220456Z 35012KT 06/06 A3012 RMK A01 T00590060  RH  100%=      5-min Rain = 0
KWE2 220457Z 35012KT 06/06 A3012 RMK A01 T00590059  RH  100%=      5-min Rain = 0
KWE2 220458Z 35013KT 06/06 A3012 RMK A01 T00590059  RH  100%=      5-min Rain = 0
KWE2 220459Z 35012KT 06/06 A3012 RMK A01 T00590059  RH  100%=      5-min Rain = 0
KWE2 220500Z 36011KT 06/06 A3012 RMK A01 T00590059  RH  100%=      5-min Rain = 0
KWE2 220501Z 01014KT 06/06 A3012 RMK A01 T00580058  RH  100%=      5-min Rain = 0
KWE2 220502Z 02012KT 06/06 A3011 RMK A01 T00580058  RH  100%=      5-min Rain = 0
KWE2 220503Z 02012KT 06/06 A3011 RMK A01 T00580058  RH  100%=      5-min Rain = 0
KWE2 220504Z 03009G14KT 06/06 A3011 RMK A01 T00580058  RH  100%=      5-min Rain = 0
KWE2 220505Z 02010KT 06/06 A3012 RMK A01 T00580058  RH  100%=      5-min Rain = 0
KWE2 220506Z 02010KT 06/06 A3012 RMK A01 T00580058  RH  100%=      5-min Rain = 0
KWE2 220507Z 02008KT 06/06 A3012 RMK A01 T00580058  RH  100%=      5-min Rain = 0
KWE2 220508Z 03009KT 06/06 A3012 RMK A01 T00570057  RH  100%=      5-min Rain = 0
KWE2 220509Z 02010KT 06/06 A3012 RMK A01 T00570057  RH  100%=      5-min Rain = 0
KWE2 220510Z 02009KT 06/06 A3011 RMK A01 T00570057  RH  100%=      5-min Rain = 0
KWE2 220511Z 03009KT 06/06 A3011 RMK A01 T00570057  RH  100%=      5-min Rain = 0
KWE2 220512Z 02009KT 06/06 A3011 RMK A01 T00570057  RH  100%=      5-min Rain = 0
KWE2 220513Z 02011KT 06/06 A3011 RMK A01 T00570057  RH  100%=      5-min Rain = 0
KWE2 220514Z 02010KT 06/06 A3011 RMK A01 T00570057  RH  100%=      5-min Rain = 0
KWE2 220515Z 03008KT 06/06 A3011 RMK A01 T00570057  RH  100%=      5-min Rain = 0
KWE2 220516Z 02008KT 06/06 A301 RMK A01 T00570057  RH  100%=      5-min Rain = 0
KWE2 220517Z 02009KT 06/06 A301 RMK A01 T00570057  RH  100%=      5-min Rain = 0
KWE2 220518Z 03007KT 06/06 A301 RMK A01 T00570057  RH  100%=      5-min Rain = 0
KWE2 220519Z 03010KT 06/06 A301 RMK A01 T00570057  RH  100%=      5-min Rain = 0
KWE2 220520Z 03009KT 06/06 A301 RMK A01 T00570057  RH  100%=      5-min Rain = 0
KWE2 220521Z 03010KT 06/06 A3011 RMK A01 T00570057  RH  100%=      5-min Rain = 0
KWE2 220522Z 03010KT 06/06 A3011 RMK A01 T00560056  RH  100%=      5-min Rain = 0
KWE2 220523Z 03011KT 06/06 A3011 RMK A01 T00560056  RH  100%=      5-min Rain = 0
KWE2 220524Z 02011KT 06/06 A3011 RMK A01 T00560056  RH  100%=      5-min Rain = 0
KWE2 220525Z 02012KT 06/06 A3011 RMK A01 T00560056  RH  100%=      5-min Rain = 0
KWE2 220526Z 01011KT 06/06 A3011 RMK A01 T00560056  RH  100%=      5-min Rain = 0
KWE2 220527Z 01010KT 06/06 A3011 RMK A01 T00560056  RH  100%=      5-min Rain = 0
KWE2 220528Z 02009KT 06/06 A3011 RMK A01 T00550055  RH  100%=      5-min Rain = 0
KWE2 220529Z 01010KT 06/06 A3011 RMK A01 T00550055  RH  100%=      5-min Rain = 0
KWE2 220530Z 01010KT 06/06 A3011 RMK A01 T00550055  RH  100%=      5-min Rain = 0
KWE2 220531Z 01010KT 06/06 A3011 RMK A01 T00550055  RH  100%=      5-min Rain = 0
KWE2 220532Z 02010KT 06/06 A3011 RMK A01 T00550055  RH  100%=      5-min Rain = 0
KWE2 220533Z 02011KT 06/06 A3011 RMK A01 T00550055  RH  100%=      5-min Rain = 0
KWE2 220534Z 02011KT 06/06 A301 RMK A01 T00550055  RH  100%=      5-min Rain = 0
KWE2 220535Z 02012KT 05/05 A301 RMK A01 T00540054  RH  100%=      5-min Rain = 0
KWE2 220536Z 02013KT 05/05 A301 RMK A01 T00540054  RH  100%=      5-min Rain = 0
KWE2 220537Z 02012KT 05/05 A301 RMK A01 T00540054  RH  100%=      5-min Rain = 0
KWE2 220538Z 02012KT 05/05 A301 RMK A01 T00530053  RH  100%=      5-min Rain = 0
KWE2 220539Z 02010KT 05/05 A3011 RMK A01 T00530053  RH  100%=      5-min Rain = 0
KWE2 220540Z 02009KT 05/05 A3011 RMK A01 T00520053  RH  100%=      5-min Rain = 0
KWE2 220541Z 01010KT 05/05 A3011 RMK A01 T00530053  RH  100%=      5-min Rain = 0
KWE2 220542Z 01011KT 05/05 A3011 RMK A01 T00520052  RH  100%=      5-min Rain = 0
KWE2 220543Z 01010KT 05/05 A3011 RMK A01 T00530053  RH  100%=      5-min Rain = 0
KWE2 220544Z 00008KT 05/05 A3012 RMK A01 T00530053  RH  100%=      5-min Rain = 0
KWE2 220545Z 01009KT 05/05 A3012 RMK A01 T00520052  RH  100%=      5-min Rain = 0
KWE2 220546Z 00008KT 05/05 A3013 RMK A01 T00530053  RH  100%=      5-min Rain = 0
KWE2 220547Z 01009KT 05/05 A3013 RMK A01 T00530053  RH  100%=      5-min Rain = 0
KWE2 220548Z 01008KT 05/05 A3013 RMK A01 T00530053  RH  100%=      5-min Rain = 0
KWE2 220549Z 01008KT 05/05 A3013 RMK A01 T00530053  RH  100%=      5-min Rain = 0
KWE2 220550Z 01008KT 05/05 A3013 RMK A01 T00530053  RH  100%=      5-min Rain = 0
KWE2 220551Z 02008KT 05/05 A3013 RMK A01 T00530053  RH  100%=      5-min Rain = 0
KWE2 220552Z 01008KT 05/05 A3013 RMK A01 T00530053  RH  100%=      5-min Rain = 0
KWE2 220553Z 01007KT 05/05 A3013 RMK A01 T00530053  RH  100%=      5-min Rain = 0
KWE2 220554Z 01006KT 05/05 A3013 RMK A01 T00530053  RH  100%=      5-min Rain = 0
KWE2 220555Z 01006KT 05/05 A3013 RMK A01 T00530053  RH  100%=      5-min Rain = 0
KWE2 220556Z 01008KT 05/05 A3013 RMK A01 T00530053  RH  100%=      5-min Rain = 0
KWE2 220557Z 00009KT 05/05 A3013 RMK A01 T00530053  RH  100%=      5-min Rain = 0
KWE2 220558Z 01009KT 05/05 A3013 RMK A01 T00530053  RH  100%=      5-min Rain = 0
KWE2 220559Z 01009KT 05/05 A3013 RMK A01 T00530053  RH  100%=      5-min Rain = 0

Page generated in 0.121 seconds.